GEFSGL_850_meantemp_000.txt.gz
Temperature
13 12 13 13 13 14 14 14 14 14 15 14 14 13 12 12 12 13 12 13 13 13 13 13 13 13 14 14 14 14 14 14 14 13 13 13 13 13 13 13 13 14 15
12 13 13 12 12 13 13 13 14 13 13 13 13 13 13 12 12 12 12 12 13 13 13 13 13 13 13 13 13 14 14 14 13 13 12 12 12 12 12 12 12 12 13
11 11 12 12 11 11 12 13 13 13 13 13 13 13 13 12 12 12 12 12 13 13 13 12 13 12 12 12 12 13 13 13 13 13 12 12 12 12 11 11 11 11 12
11 10 9 11 11 10 11 12 12 12 13 13 13 13 13 13 12 12 12 12 13 13 13 13 13 13 13 12 12 12 12 12 12 12 12 12 12 12 12 11 11 11 10
10 10 8 9 11 9 10 11 12 12 13 13 13 13 13 13 13 13 12 12 12 13 13 13 13 13 13 13 12 12 11 11 11 11 12 12 12 13 13 13 12 11 11
10 10 10 10 8 9 10 11 11 11 12 12 12 12 13 13 13 13 12 12 12 12 13 13 13 13 12 12 12 12 11 11 11 12 12 13 13 13 13 13 12 12 11
11 11 11 11 10 10 10 10 10 10 11 12 12 12 12 12 13 12 12 11 12 12 12 12 12 13 12 12 12 12 11 11 12 12 12 12 12 12 12 13 12 13 12
11 11 11 11 11 10 10 10 10 10 10 11 11 11 12 12 12 12 12 11 11 11 12 12 12 12 12 12 11 12 12 12 12 12 12 11 11 11 11 11 11 11 11
10 10 10 10 10 10 10 10 9 9 9 10 11 11 11 11 12 12 11 11 11 11 11 11 11 12 11 11 12 12 12 12 12 12 12 11 11 11 11 11 11 12 12
9 9 9 9 9 9 10 9 9 9 9 9 9 10 10 10 11 12 11 11 11 11 11 11 11 11 12 11 11 12 12 12 11 11 11 11 11 11 11 11 12 13 13
8 8 8 8 9 9 9 9 9 9 9 9 9 9 10 9 10 11 11 11 12 11 11 11 11 11 11 11 11 11 11 11 11 10 10 10 10 10 10 10 11 12 12
6 7 7 7 8 9 9 9 9 9 9 9 9 8 8 9 8 9 10 11 11 12 12 11 11 11 11 11 10 11 11 11 11 11 11 11 11 10 9 9 10 9 10
5 5 5 6 7 8 8 8 8 9 9 10 10 8 8 8 8 8 9 10 10 11 12 10 10 10 10 10 10 10 10 11 11 11 11 11 10 9 9 8 8 9 8
4 5 5 5 6 6 7 8 9 10 10 10 9 8 8 7 8 8 9 10 10 11 11 10 10 9 9 9 9 9 10 10 11 11 10 10 9 9 10 9 9 9 9
4 4 4 4 4 5 6 7 8 9 9 10 8 8 7 7 8 8 8 9 9 10 10 9 9 9 9 9 9 9 9 9 10 10 10 9 10 10 10 10 10 10 10
3 3 3 4 4 4 5 6 7 8 8 8 8 8 7 7 8 8 8 9 10 10 9 10 10 10 9 10 10 9 9 10 10 10 10 10 10 10 10 10 10 10 10
3 3 3 3 3 4 4 5 7 8 8 7 7 7 7 8 8 8 8 8 9 10 10 10 10 10 10 10 10 10 10 10 10 10 10 10 10 10 9 10 10 10 9
3 3 3 3 3 3 4 5 6 8 8 7 7 8 7 7 7 7 8 8 8 9 11 11 11 11 10 10 10 10 10 9 10 10 10 10 10 10 10 10 10 10 9
3 3 3 3 3 3 4 5 7 8 9 8 6 7 7 7 7 7 8 8 8 9 12 11 11 11 11 11 10 10 10 9 10 10 10 10 10 10 10 10 9 9 9
2 2 2 2 3 4 5 7 8 8 8 7 6 6 6 6 7 7 7 7 8 9 12 12 11 11 11 11 10 10 10 9 9 10 10 10 10 10 10 10 9 9 9
2 3 2 3 4 5 7 8 7 7 7 7 6 6 6 6 7 7 8 7 9 10 11 12 11 11 11 11 10 10 10 10 10 10 10 10 10 10 10 10 9 9 9
3 3 4 4 5 6 6 6 6 6 6 6 6 6 7 7 7 8 8 9 10 10 11 12 12 11 11 11 11 11 11 10 10 10 10 10 10 10 10 10 10 9 9
3 4 4 5 6 6 6 6 6 6 6 6 6 6 6 7 9 9 10 10 10 11 12 12 12 12 12 11 11 11 11 11 11 10 10 10 10 10 10 10 10 10 9
4 4 5 5 6 6 6 6 5 5 5 5 6 6 7 10 10 10 10 10 10 11 12 12 12 12 12 11 11 11 11 11 11 11 10 10 10 10 10 10 10 10 10
5 5 6 6 7 7 7 6 5 5 6 7 7 8 9 10 11 11 10 10 11 12 12 12 12 12 11 11 12 11 11 11 11 11 10 10 11 10 10 10 10 10 10
7 7 7 8 8 8 8 7 6 7 8 8 8 9 9 10 11 11 11 11 11 11 12 12 12 12 11 11 11 11 11 11 10 10 10 10 10 10 10 10 10 10 10

GEFSGL_850_meantemp_006.txt.gz
Temperature
13 13 14 13 14 14 14 14 15 15 14 14 14 14 14 14 14 14 14 14 14 14 14 14 14 14 14 14 14 14 14 15 15 15 14 14 14 14 14 14 14 14 14
12 12 12 12 12 12 12 13 13 13 14 14 13 13 13 13 14 14 14 14 14 14 14 14 13 13 14 14 14 14 14 14 14 14 14 13 13 13 13 13 13 14 14
11 11 11 11 11 11 11 11 12 12 12 13 13 13 13 13 13 13 14 13 14 14 14 14 13 13 14 14 14 14 14 14 14 14 13 13 13 12 12 13 13 12 12
11 11 11 11 11 11 11 11 11 11 11 11 12 12 12 12 13 13 13 13 13 14 14 14 13 13 13 14 14 13 13 13 13 13 13 12 12 11 12 12 11 12 11
12 11 11 11 11 11 11 10 10 10 10 10 10 11 11 11 12 12 13 13 13 14 14 13 13 13 13 14 13 13 12 13 13 12 12 11 11 11 11 11 11 11 11
11 11 11 11 11 11 11 10 10 10 10 10 10 10 10 11 11 12 12 12 13 13 13 13 13 13 13 13 13 12 12 12 12 12 11 11 11 11 11 11 11 11 11
11 10 10 10 10 11 11 11 11 10 10 10 10 10 10 10 11 11 12 12 13 13 13 13 13 13 13 13 12 12 12 12 12 12 11 11 11 11 11 11 11 12 12
10 9 9 9 9 9 10 10 10 10 10 10 10 10 10 10 10 10 11 12 12 12 13 13 13 13 12 12 12 12 12 11 11 11 12 11 11 11 11 12 12 12 12
9 9 8 8 8 8 8 9 9 9 10 10 10 10 10 10 10 10 11 11 11 12 12 12 12 12 12 12 12 12 12 11 11 11 12 11 11 11 12 12 12 12 12
9 8 7 7 7 7 7 8 8 9 9 9 10 10 10 9 9 10 10 10 10 11 11 12 12 12 12 12 12 12 12 11 11 11 11 11 12 12 12 12 12 12 12
8 7 6 6 6 6 7 7 7 8 8 9 9 9 9 9 9 10 10 10 10 10 10 11 12 12 12 12 12 12 12 12 11 11 11 12 12 12 12 12 12 12 12
6 6 5 5 5 6 6 6 7 7 8 8 8 9 9 9 9 9 9 9 10 10 10 10 11 12 12 11 11 11 12 12 11 11 11 11 11 11 12 12 12 13 13
4 4 4 5 5 5 5 6 6 7 7 7 8 9 9 9 9 9 9 9 9 10 9 9 10 11 11 11 11 11 11 11 11 11 11 11 11 11 11 11 11 12 12
3 3 4 4 4 5 5 5 6 6 7 7 8 8 9 9 9 9 9 9 9 9 9 9 9 10 11 11 11 11 11 12 12 12 12 11 10 10 10 10 11 11 11
3 3 3 4 4 5 5 5 6 6 6 7 7 7 8 8 8 9 9 8 8 9 8 8 9 10 10 11 11 11 11 12 12 12 11 11 10 10 10 10 10 11 11
3 3 4 4 4 4 5 5 5 6 6 6 7 7 7 8 8 8 8 8 8 8 8 8 8 10 10 10 10 11 11 11 12 11 11 11 10 10 10 10 10 10 10
3 3 4 4 4 4 4 4 5 6 6 6 7 7 7 8 8 8 7 7 7 7 8 9 9 10 10 10 10 11 11 11 11 11 11 11 11 11 11 11 11 11 11
4 4 4 4 4 4 4 4 5 5 6 6 7 7 7 8 8 7 7 7 7 8 9 10 11 11 11 11 11 11 11 11 11 11 11 11 11 11 11 11 11 11 11
4 3 3 3 4 4 4 4 5 5 6 6 6 7 7 7 7 7 7 7 7 9 10 11 11 11 11 11 11 11 11 11 11 11 11 11 11 11 11 11 11 11 11
4 3 3 3 3 4 4 4 5 5 6 6 6 7 7 7 7 7 6 7 8 9 10 11 11 12 12 12 12 11 11 11 11 11 11 11 11 11 11 11 11 11 11
4 4 3 3 4 4 4 5 5 6 6 6 6 7 7 6 6 6 7 7 8 9 10 11 11 12 12 12 11 11 11 11 11 11 11 11 11 12 11 11 11 11 11
5 5 5 4 4 5 5 5 6 6 7 7 7 6 6 6 6 6 7 8 9 10 10 11 12 12 12 12 11 11 11 11 11 11 11 11 12 12 11 11 11 11 11
6 6 6 6 6 6 7 7 7 7 7 7 7 7 7 7 7 7 8 8 9 10 11 12 12 12 12 12 11 11 11 11 11 11 11 11 11 12 11 11 11 11 11
7 7 7 8 8 8 7 7 8 7 7 7 7 7 7 7 7 8 8 9 10 11 11 12 12 12 12 12 12 12 12 11 11 11 11 11 11 11 11 11 11 11 11
7 7 8 8 8 8 8 7 7 7 7 7 7 7 7 7 8 8 9 10 10 11 11 12 12 12 12 12 12 12 12 12 11 11 11 11 11 11 11 11 11 11 11
7 7 7 7 7 7 7 7 7 7 6 7 7 7 7 7 8 9 10 10 11 11 12 12 12 13 13 12 12 12 12 12 12 12 11 11 11 12 11 11 11 11 11

GEFSGL_850_meantemp_012.txt.gz
Temperature
13 13 12 12 12 12 12 11 11 11 11 12 12 12 12 12 13 13 14 14 14 14 14 14 13 13 13 14 14 14 14 14 14 14 13 13 13 14 14 14 14 14 15
13 12 12 12 12 12 12 11 11 11 11 11 11 11 11 11 12 12 13 13 14 14 14 14 13 13 13 14 14 14 14 14 14 13 13 13 13 13 13 12 13 13 14
12 12 12 12 11 11 11 11 11 11 11 10 10 11 11 11 11 11 12 12 13 13 14 13 13 13 13 14 14 14 14 14 14 13 13 13 13 13 12 12 12 12 13
12 12 12 12 11 11 11 11 10 10 10 10 10 10 10 10 10 10 11 11 12 12 13 13 13 13 13 14 14 14 14 14 14 13 13 13 12 12 12 12 11 11 11
12 12 11 11 11 11 10 10 10 10 10 10 10 10 10 10 10 10 10 10 11 12 12 13 13 13 13 13 14 14 14 14 13 13 12 12 12 12 12 11 11 11 11
11 11 11 11 11 10 10 10 10 9 9 9 9 9 10 10 10 10 10 10 10 11 12 12 13 13 13 13 13 14 14 14 13 13 12 12 12 12 11 11 11 11 10
11 11 11 11 10 10 10 10 9 9 9 9 9 9 9 9 10 10 10 10 10 10 11 12 12 13 13 13 13 13 14 13 13 13 13 12 12 12 11 11 11 11 10
10 10 10 10 10 9 9 9 9 9 8 8 8 8 9 9 9 9 9 9 9 10 10 11 11 12 12 13 13 13 13 13 13 12 12 12 12 11 11 11 11 10 10
8 8 8 8 8 8 8 8 8 8 8 8 8 8 8 9 9 9 9 9 9 9 10 10 11 11 12 12 13 13 13 12 12 12 12 12 11 11 11 10 10 10 9
5 5 5 6 6 7 7 7 7 7 7 7 7 7 7 8 9 9 9 9 9 9 9 10 10 11 11 12 12 12 12 12 11 11 11 11 11 11 11 11 11 11 10
3 4 4 4 4 5 5 5 6 6 6 6 6 7 7 8 8 9 9 9 9 9 9 9 10 10 11 11 12 12 13 12 11 11 11 11 10 10 11 11 11 12 11
3 3 3 3 3 3 4 4 4 5 5 5 6 6 7 7 8 8 9 9 9 9 9 9 9 10 10 11 11 12 12 12 11 11 11 11 11 11 11 11 11 11 12
3 3 3 3 3 3 3 3 3 4 4 5 5 6 7 7 8 8 9 9 9 9 8 8 8 9 9 10 10 11 11 11 11 11 11 11 11 11 11 11 11 11 11
3 3 3 3 3 3 3 3 3 4 4 5 5 6 6 7 8 8 9 9 8 8 8 8 8 8 8 9 10 10 11 11 11 11 11 11 11 11 11 11 11 11 11
4 3 3 3 3 3 4 4 4 4 4 5 5 6 6 7 8 8 8 9 9 8 8 8 7 8 8 8 9 10 10 11 11 11 11 11 11 11 11 11 11 12 11
4 4 3 3 3 3 4 4 4 4 4 5 5 6 6 7 7 8 8 8 8 8 8 7 7 7 8 8 9 9 10 10 10 11 11 11 11 11 11 10 11 11 11
4 4 4 3 4 4 4 4 4 4 5 5 5 6 6 6 7 8 8 8 8 7 7 7 7 8 8 8 9 9 10 10 10 11 11 11 11 11 10 10 10 10 11
4 4 4 3 4 4 4 4 4 4 5 5 5 5 6 6 7 7 7 7 7 7 7 7 7 7 8 8 9 9 10 10 11 11 11 11 11 10 10 10 10 10 10
5 4 4 4 4 4 4 4 4 4 5 5 5 5 6 6 6 7 7 7 7 7 7 7 7 7 8 9 9 9 10 10 11 11 11 11 10 10 10 10 10 10 10
6 5 5 4 4 4 4 5 5 5 5 5 6 6 6 6 6 7 7 7 7 7 7 7 7 7 8 9 9 10 10 11 11 11 11 11 10 10 10 10 10 10 10
6 6 6 5 5 5 5 5 5 5 5 5 6 6 6 6 7 7 7 7 6 6 7 7 7 8 8 9 9 10 10 11 11 11 11 11 11 10 10 10 11 10 10
7 7 7 6 6 6 6 6 6 6 6 6 6 6 6 6 6 6 6 6 7 7 7 8 8 9 9 10 10 10 10 11 11 11 11 11 11 11 10 11 11 11 10
7 7 7 7 7 7 7 7 7 7 7 6 6 6 6 6 6 6 6 7 7 7 8 8 9 10 10 10 11 11 11 11 11 11 11 11 11 11 11 11 11 11 11
7 7 7 7 7 7 7 7 7 7 7 7 6 6 6 6 6 6 7 7 8 8 9 9 10 11 11 11 11 11 11 11 11 11 11 11 11 11 11 11 11 11 11
8 8 7 7 7 7 7 7 7 7 7 7 6 6 6 7 7 7 8 8 9 9 10 11 11 11 11 11 11 11 11 11 11 11 11 11 11 11 11 11 11 11 11
8 8 8 7 7 7 7 7 7 7 7 7 7 7 7 7 8 8 8 9 9 10 11 11 11 11 11 11 11 11 11 11 11 11 11 11 11 11 11 11 11 11 11

GEFSGL_850_meantemp_018.txt.gz
Temperature
13 13 12 12 12 12 12 12 12 12 11 11 11 11 11 11 12 12 12 12 12 12 13 13 14 14 14 14 14 13 13 13 12 13 13 13 13 13 13 14 14 15 15
12 12 12 12 12 12 12 12 12 11 11 11 11 11 11 11 11 11 11 11 11 11 12 12 13 13 13 13 14 14 13 13 13 13 13 12 12 12 12 12 13 13 14
11 11 11 11 11 11 11 11 11 11 11 11 11 10 10 10 10 10 10 11 11 11 11 11 12 12 13 13 14 14 13 13 13 13 12 12 12 12 12 12 12 12 12
9 9 10 10 10 11 11 11 11 11 11 11 11 10 10 10 10 10 10 10 10 10 10 11 11 12 12 13 13 14 13 13 13 13 12 12 12 12 12 12 11 11 11
7 7 8 8 9 9 9 10 10 11 11 11 10 10 10 10 10 10 10 10 10 10 10 10 11 11 12 12 13 13 13 13 13 13 12 12 12 12 12 11 11 11 11
5 5 6 6 6 7 8 8 9 10 10 10 10 10 10 9 9 9 9 9 9 9 9 10 10 10 11 12 12 13 13 13 13 13 12 12 12 12 12 11 11 11 10
4 5 5 5 5 5 6 6 7 8 9 9 9 9 9 9 9 9 9 9 9 9 9 9 10 10 11 11 12 12 13 13 13 13 13 12 12 12 12 12 11 11 11
4 4 4 4 4 4 4 5 5 6 7 8 8 9 9 9 9 9 9 9 9 9 9 9 9 10 10 11 12 12 12 13 13 13 13 13 12 12 12 12 11 11 10
4 4 4 4 3 3 4 4 4 5 6 6 7 7 8 8 8 8 8 8 9 9 9 9 9 9 10 10 11 11 12 12 13 13 12 12 12 12 12 11 11 10 9
4 4 4 3 3 3 3 3 3 4 4 5 6 7 7 7 8 8 8 8 8 9 9 9 9 9 9 10 10 11 11 12 12 12 12 12 12 12 12 12 11 11 10
4 4 4 4 3 3 3 3 3 3 4 4 5 6 6 7 7 7 7 7 8 8 9 9 9 9 9 9 10 10 11 11 12 12 12 12 11 11 11 11 11 11 11
4 4 4 4 3 3 3 3 3 3 3 4 4 5 5 6 6 7 7 7 7 8 8 9 9 8 9 9 9 10 10 11 11 11 11 11 11 11 10 10 10 11 11
4 4 4 4 4 3 3 3 3 3 3 3 4 4 5 5 6 6 6 7 7 8 8 8 8 8 8 9 9 10 10 10 11 11 11 11 11 10 10 10 10 10 10
4 4 4 4 4 4 3 3 3 3 3 3 4 4 4 5 6 6 6 7 7 7 8 8 8 8 8 8 9 9 10 10 10 11 11 10 10 10 10 10 10 9 10
5 4 4 4 4 4 4 3 3 4 3 4 4 4 4 5 5 6 6 7 7 8 8 8 8 7 7 8 8 9 9 10 10 10 10 10 10 10 10 10 10 10 10
5 5 4 4 4 4 4 4 4 4 4 4 4 4 4 5 5 6 6 7 7 7 8 8 7 7 7 7 8 8 9 9 10 10 10 10 10 10 10 10 10 10 10
5 5 5 4 4 4 4 4 4 4 4 4 4 4 5 5 6 6 7 7 7 7 7 7 7 7 7 7 7 8 8 9 10 10 10 10 10 10 10 10 10 11 11
6 5 5 5 4 4 4 4 4 4 4 4 5 5 5 5 6 6 7 7 7 7 7 7 7 7 7 7 7 7 8 9 9 10 10 11 11 11 11 11 11 11 11
6 6 6 5 5 5 5 4 4 5 5 5 5 5 5 6 6 6 7 7 7 7 7 7 7 7 7 6 7 7 8 9 9 10 10 10 10 11 11 11 11 11 11
6 6 6 6 5 5 5 5 5 5 5 5 5 5 5 6 6 6 7 7 7 7 7 7 6 6 6 6 7 7 8 9 9 10 10 10 10 11 11 10 10 10 10
7 6 6 6 6 6 6 5 5 5 5 5 5 5 6 6 6 6 7 7 7 7 7 6 6 6 6 6 7 7 8 9 9 10 10 10 10 10 10 10 10 10 10
7 7 6 7 7 6 6 6 6 5 5 5 5 6 6 6 6 6 6 6 6 6 6 6 6 6 6 7 7 8 8 9 10 10 10 10 10 10 9 9 9 9 9
7 7 7 7 7 7 7 6 6 6 6 5 5 6 6 6 6 6 6 6 6 6 6 6 6 6 7 7 7 8 9 9 10 10 10 10 10 10 10 9 10 10 9
7 7 7 7 7 7 7 6 6 6 6 6 5 6 6 6 6 6 6 7 7 7 6 7 7 7 7 7 8 8 9 10 10 10 11 10 10 10 10 10 10 10 10
7 7 7 7 7 7 7 6 6 6 6 6 6 6 6 6 6 7 7 7 7 7 7 7 7 8 8 8 9 9 10 10 10 10 10 10 10 10 10 10 10 10 10
7 7 7 7 7 7 7 6 6 6 6 6 6 6 6 6 7 7 7 8 8 8 8 9 9 9 9 9 10 10 10 10 10 10 10 10 10 10 10 10 10 10 10

GEFSGL_850_meantemp_024.txt.gz
Temperature
9 9 8 8 8 9 9 9 9 10 10 10 10 10 11 11 11 11 11 11 11 12 12 12 13 13 13 14 14 14 14 15 15 16 15 14 14 14 14 15 15 15 16
8 8 8 8 8 8 8 8 8 8 9 9 10 10 10 11 11 11 11 11 11 11 11 11 11 12 12 13 13 13 14 14 14 15 14 14 14 14 14 14 14 14 15
8 7 7 7 7 7 7 7 7 7 8 8 9 9 10 10 10 11 11 11 10 10 10 11 11 11 11 12 12 13 13 13 13 14 14 14 13 13 13 13 13 13 13
7 7 6 6 6 6 6 6 6 6 7 7 8 8 9 9 10 10 10 10 10 10 10 10 10 10 10 11 11 12 12 13 13 13 14 14 13 13 13 12 12 12 12
6 6 6 6 6 6 6 6 6 6 6 6 7 7 8 9 9 10 10 10 10 10 10 10 10 10 10 10 10 11 11 12 13 13 13 13 13 13 12 12 12 12 12
6 6 6 6 6 6 6 5 5 5 5 6 6 6 7 8 9 9 10 10 10 10 10 10 10 10 10 10 10 10 10 11 12 12 13 13 13 13 12 12 12 11 11
6 6 6 6 6 5 5 5 5 5 5 5 5 6 6 7 8 9 9 9 10 10 9 9 10 10 9 10 10 10 10 10 11 11 12 13 13 13 12 12 12 12 11
6 6 6 5 5 5 5 5 5 5 4 4 5 5 5 6 7 8 9 9 9 9 9 9 9 10 9 9 9 10 10 10 11 11 12 12 13 13 13 13 12 11 11
6 6 5 5 5 5 5 5 5 4 4 4 4 4 5 6 6 7 8 8 8 9 9 9 9 9 9 9 9 9 10 10 10 11 11 12 12 12 12 12 11 11 10
6 5 5 5 5 5 5 5 5 4 4 4 4 4 5 5 6 7 7 8 8 8 8 9 9 9 9 9 9 9 10 10 10 10 11 11 12 12 12 12 12 11 11
5 5 5 5 5 5 5 5 5 4 4 4 4 4 5 5 6 6 7 7 8 8 9 9 9 9 9 9 9 9 9 10 10 10 11 11 12 12 11 11 11 11 12
5 5 5 5 5 5 5 5 5 4 4 4 4 4 5 5 5 6 7 7 7 8 8 9 9 9 9 9 9 9 9 9 9 10 10 11 11 11 11 11 11 11 11
5 5 5 5 5 5 5 5 5 5 4 4 4 4 5 5 5 6 6 7 7 7 8 8 8 8 8 9 9 9 9 9 9 10 10 11 11 11 11 11 11 11 10
5 5 5 5 5 5 5 5 5 5 4 4 4 4 5 5 5 6 6 6 7 7 7 7 8 8 8 8 9 9 9 9 9 10 10 11 11 11 10 10 10 10 9
6 5 5 6 6 5 5 5 5 5 4 4 4 4 5 5 5 6 6 6 7 7 7 7 8 8 8 8 9 9 9 9 9 10 10 10 11 10 10 10 10 10 9
6 6 6 6 6 6 6 6 6 5 5 5 5 5 5 5 5 5 6 6 7 7 7 7 8 8 8 9 9 9 9 9 9 9 10 10 10 10 10 10 9 9 9
6 6 6 6 6 6 6 6 6 6 5 5 5 5 5 5 5 5 6 6 6 7 7 7 8 8 8 9 9 9 9 9 9 9 10 10 10 10 10 9 9 9 9
6 6 6 6 7 7 7 7 7 6 6 6 5 5 5 5 5 5 6 6 6 6 7 7 8 8 8 8 8 8 8 8 9 9 9 10 10 9 9 9 9 9 9
6 6 6 6 7 7 7 7 7 7 6 6 6 5 6 6 6 6 6 6 6 7 7 8 8 8 8 8 8 8 8 8 8 9 9 9 9 9 9 9 9 10 10
6 6 6 7 7 7 7 7 7 7 7 6 6 6 6 6 6 6 6 6 6 7 7 7 8 8 8 8 8 8 8 8 8 8 9 9 9 9 9 9 9 10 10
6 7 7 7 7 8 7 7 7 7 7 6 6 6 6 6 6 6 6 6 7 7 7 7 8 8 8 8 7 7 7 8 8 8 8 9 9 9 9 10 10 10 11
6 7 7 7 7 7 7 7 7 7 7 6 6 6 6 6 7 7 7 7 7 7 7 7 8 8 8 7 7 7 7 7 8 8 8 9 9 9 10 10 10 11 11
6 7 7 7 7 7 7 7 7 7 7 7 7 7 7 7 7 7 7 7 7 7 7 7 7 7 7 7 7 7 7 7 8 8 8 9 9 10 10 10 10 11 11
6 6 7 7 7 7 7 7 7 7 7 7 7 7 7 7 7 7 7 7 7 7 7 7 7 7 7 7 7 7 7 8 8 8 9 9 10 10 10 10 11 11 11
6 6 6 7 7 7 8 7 7 7 7 7 7 7 7 7 7 7 7 7 7 7 7 7 7 7 7 7 7 7 7 8 8 9 9 10 10 10 10 10 10 10 11
6 6 6 7 7 7 8 8 8 8 8 7 7 7 7 8 8 8 8 7 7 7 7 7 7 7 7 7 7 7 8 8 9 9 10 10 10 10 10 10 10 10 10

GEFSGL_850_meantemp_030.txt.gz
Temperature
11 10 10 9 9 9 9 9 9 9 9 9 9 9 10 10 10 11 11 11 12 12 12 13 13 13 14 14 15 15 16 16 17 17 16 16 16 16 15 15 15 16 16
11 10 10 9 9 9 8 8 8 8 8 8 8 8 9 9 9 10 10 11 11 11 12 12 12 12 13 13 14 15 15 15 15 16 16 15 15 15 15 14 14 15 15
10 10 9 9 9 8 8 8 8 8 8 8 8 8 8 8 9 9 10 10 10 11 11 11 11 12 12 12 13 14 14 14 15 15 15 15 15 15 14 14 14 14 14
10 9 9 9 8 8 8 8 8 8 8 8 8 7 7 8 8 8 9 9 10 10 11 11 11 11 11 12 12 13 13 14 14 14 15 15 15 14 14 14 13 13 13
10 9 9 9 8 8 8 8 8 8 8 7 7 7 7 7 8 8 8 9 9 9 10 10 11 11 11 11 11 12 12 13 13 14 14 14 14 14 14 14 13 12 12
9 9 9 8 8 8 8 8 8 8 7 7 7 7 7 7 7 8 8 8 8 9 9 10 10 11 11 11 11 11 11 12 12 13 13 14 14 14 14 14 13 12 12
9 9 8 8 8 8 8 7 7 7 7 7 7 7 7 7 7 7 7 7 8 8 8 9 9 10 10 11 11 11 11 11 11 12 12 13 13 13 14 13 13 12 12
9 8 8 8 8 7 7 7 7 7 7 7 7 7 7 6 6 6 7 7 7 7 8 8 9 10 10 10 10 10 11 11 11 11 12 12 13 13 13 14 13 12 12
9 8 8 8 7 7 7 7 7 7 7 7 7 7 6 6 6 6 6 6 6 7 8 8 9 9 10 10 10 10 10 10 11 11 11 12 12 12 13 13 12 12 11
8 8 7 7 7 7 7 7 7 7 7 7 7 7 6 6 6 6 6 6 6 7 7 8 8 9 9 10 10 10 10 10 10 10 11 11 11 12 12 12 13 12 12
8 7 7 7 7 7 7 7 7 7 7 7 7 7 6 6 6 6 6 6 6 6 7 8 8 9 9 9 10 10 10 10 10 10 10 11 11 11 12 12 12 13 12
8 7 7 7 7 7 7 7 7 7 7 7 7 7 6 6 6 6 6 6 6 6 7 8 8 9 9 9 9 9 9 9 9 9 10 10 11 11 11 11 12 12 12
7 7 7 7 7 7 7 7 7 7 7 7 7 6 6 6 6 6 6 6 6 6 7 7 8 8 9 9 9 9 9 9 9 9 10 10 10 11 11 11 11 11 11
7 7 7 7 7 7 7 8 8 8 7 7 7 6 6 6 6 6 6 6 6 7 7 7 7 8 8 9 9 9 9 9 9 9 10 10 10 10 11 11 11 11 11
7 7 7 7 7 7 8 8 8 8 8 7 7 6 6 6 6 6 6 6 6 7 7 7 8 8 8 8 8 9 9 9 9 9 10 10 10 10 10 10 11 11 11
6 6 7 7 7 7 8 8 8 8 8 7 7 6 6 6 6 6 6 6 7 7 7 7 7 8 8 8 8 9 9 9 9 9 10 10 10 10 10 10 10 11 11
6 6 6 7 7 7 8 8 8 8 8 8 7 7 6 6 6 6 6 7 7 7 7 7 8 8 8 8 9 9 9 9 9 9 10 10 10 10 10 10 10 10 10
6 6 7 7 7 8 8 8 8 8 8 8 8 7 7 6 6 6 6 7 7 7 7 7 8 8 8 9 9 9 9 10 9 9 10 9 9 10 9 10 10 10 10
6 7 7 7 7 8 8 8 9 9 8 8 8 7 7 7 7 6 7 7 7 7 8 8 8 9 9 9 9 9 9 10 10 9 9 9 9 9 9 9 10 10 10
7 7 7 7 8 8 8 9 9 9 8 8 8 8 7 7 7 7 7 7 7 8 8 8 9 9 9 9 9 9 9 9 9 9 9 9 9 9 9 9 9 9 10
6 7 8 8 8 8 8 9 9 9 9 8 8 8 8 8 8 7 7 8 8 8 8 8 9 9 9 9 9 9 9 9 9 9 9 9 9 9 9 9 9 9 10
6 7 7 8 8 8 9 9 9 9 9 9 9 8 8 8 8 8 8 8 8 8 9 9 9 9 9 9 9 9 9 9 9 9 9 9 9 9 9 9 9 9 9
6 7 7 8 8 8 9 9 9 9 9 9 9 9 9 8 9 9 9 9 8 9 9 9 9 9 9 9 9 9 9 9 9 9 9 9 9 9 9 9 9 9 9
6 7 7 8 8 8 9 9 9 9 9 9 9 9 9 9 9 9 8 8 8 8 9 9 9 9 8 8 8 8 8 8 8 8 8 8 9 9 9 9 9 9 9
6 7 7 7 8 8 8 9 9 9 9 9 9 9 9 9 9 9 9 8 8 8 8 8 8 8 8 8 8 8 8 8 8 8 8 8 9 9 9 9 9 9 10
6 6 7 7 7 8 8 8 9 9 9 9 9 9 9 9 8 9 9 8 8 8 8 8 8 8 8 8 8 8 8 8 8 8 8 8 9 9 9 9 9 9 10

GEFSGL_850_meantemp_036.txt.gz
Temperature
12 11 11 10 10 10 9 9 9 9 9 8 8 9 9 9 9 9 9 9 10 10 10 11 11 12 12 12 13 13 13 14 14 15 16 16 16 16 16 16 16 16 16
12 11 11 10 10 10 9 9 9 8 8 8 8 8 8 8 9 9 9 9 9 9 10 10 10 11 11 12 12 12 13 13 14 14 15 15 15 16 16 16 16 16 16
12 11 11 10 10 10 9 9 9 8 8 8 8 8 8 8 8 8 8 9 9 9 9 9 10 10 10 11 11 12 12 13 13 14 14 15 15 15 15 15 15 15 15
11 11 11 10 10 10 9 9 8 8 8 8 8 8 8 8 8 8 8 8 8 9 9 9 9 9 10 10 11 11 11 12 12 13 14 14 14 15 15 15 14 14 15
11 11 11 10 10 9 9 9 8 8 8 7 7 7 7 7 8 8 7 7 7 8 8 8 8 9 9 10 10 10 11 11 12 12 13 13 14 14 14 14 14 14 14
11 11 10 10 9 9 9 8 8 8 7 7 7 7 7 7 7 7 7 7 7 7 7 8 8 8 9 9 9 10 10 11 11 11 12 12 13 14 14 14 14 13 12
11 10 10 9 9 9 8 8 8 8 7 7 7 7 7 8 7 7 7 7 6 7 7 7 7 8 8 8 9 9 10 10 10 11 11 12 12 13 13 14 14 14 14
10 10 9 9 9 8 8 8 8 7 7 7 8 8 7 8 7 7 7 6 6 6 6 7 7 7 8 8 8 9 9 10 10 10 11 11 12 12 13 14 14 13 13
10 9 9 8 8 8 8 7 7 7 7 8 8 8 8 8 7 7 7 6 6 6 6 6 6 7 7 7 8 8 9 9 10 10 10 11 11 12 12 12 12 12 12
9 9 8 8 8 7 7 7 7 7 8 8 8 8 8 7 7 7 7 6 6 6 6 6 6 6 7 7 7 8 8 9 9 10 10 10 10 11 11 12 12 12 12
9 9 8 8 7 7 7 7 7 7 8 8 8 8 7 7 7 7 7 6 6 6 6 6 6 6 6 7 7 8 8 9 9 9 9 10 10 10 11 11 12 12 13
9 8 8 8 7 7 7 7 7 7 8 8 8 8 7 7 7 7 6 6 6 6 6 6 6 6 6 7 7 7 8 8 9 9 9 9 10 10 10 11 11 11 12
9 8 8 8 7 7 7 7 7 8 8 8 8 7 7 7 7 6 6 6 6 6 6 6 6 6 6 7 7 7 8 8 8 8 9 9 9 10 10 11 11 11 11
8 8 8 7 7 7 7 7 7 8 8 8 8 7 7 7 6 6 6 6 6 6 6 6 6 6 6 7 7 7 8 8 8 8 9 9 9 9 10 10 10 10 11
8 8 7 7 7 7 7 7 8 8 8 8 8 7 7 7 6 6 6 6 6 6 6 6 6 6 7 7 7 8 8 8 8 8 9 9 9 9 9 10 10 10 10
8 8 7 7 7 7 7 8 9 8 8 8 8 8 7 7 6 6 6 6 6 6 6 6 6 6 7 7 7 8 8 8 8 8 9 9 9 9 9 10 10 10 10
8 7 7 7 7 7 7 8 8 9 9 8 8 8 7 7 7 6 6 6 6 6 6 6 7 7 7 7 8 8 8 8 8 8 9 9 9 9 9 9 9 9 10
8 7 7 7 7 7 8 8 8 8 8 9 8 8 8 7 7 6 6 6 6 6 7 7 7 7 7 8 8 8 8 8 8 8 9 9 9 9 9 9 9 9 9
8 8 7 7 7 7 8 8 8 8 8 8 8 8 8 8 7 7 7 7 7 7 7 7 7 7 7 8 8 8 8 8 8 8 9 9 9 9 9 9 9 9 9
8 7 7 7 7 8 8 8 8 8 8 8 8 8 8 8 8 7 7 7 7 7 7 7 7 8 8 8 8 8 8 8 8 9 9 9 9 9 9 9 9 9 9
8 8 7 7 7 7 8 8 8 8 8 8 8 8 8 8 8 8 7 7 7 8 8 8 8 8 8 8 8 8 8 9 9 9 9 9 9 9 9 9 9 9 9
8 7 7 7 7 7 8 8 8 8 8 8 8 8 8 8 8 8 8 8 8 8 8 8 8 8 8 8 8 9 9 9 9 9 9 9 9 9 9 9 9 9 9
8 7 7 7 7 7 7 8 8 8 8 8 8 8 8 8 8 8 8 8 8 8 8 8 8 8 8 8 9 9 9 9 9 9 9 9 9 9 9 9 9 8 8
8 7 7 7 7 7 7 8 8 8 8 8 8 8 8 8 8 8 8 8 8 8 8 8 8 8 8 8 9 9 9 9 9 9 9 9 9 9 9 9 8 8 8
7 7 6 6 6 7 7 8 8 8 8 8 8 8 8 8 8 8 8 8 8 8 8 8 8 8 8 8 8 9 9 9 9 9 9 8 9 8 8 8 8 8 8
7 6 6 6 6 6 7 7 7 8 8 8 8 8 8 8 8 8 8 8 8 8 8 8 8 8 8 8 8 8 8 8 8 8 8 8 8 8 8 8 8 8 8

GEFSGL_850_meantemp_042.txt.gz
Temperature
12 12 12 11 11 11 10 10 10 10 9 9 9 9 9 9 9 8 8 8 8 8 9 9 9 10 10 10 10 11 11 11 11 13 13 14 14 14 15 15 15 15 15
12 12 12 11 11 11 10 10 10 9 9 9 9 9 9 9 8 8 8 8 8 8 8 8 9 9 9 10 10 10 11 11 11 12 13 13 14 14 14 14 15 15 15
12 12 11 11 11 10 10 10 9 9 9 9 9 8 8 8 8 8 8 8 8 8 8 8 8 8 9 9 9 10 10 10 11 11 12 13 13 13 14 14 14 15 15
12 12 11 11 10 10 10 9 9 9 9 9 8 8 8 8 8 8 8 8 8 8 8 8 8 8 8 8 9 9 10 10 10 11 11 12 12 13 13 13 14 14 14
12 11 11 10 10 10 9 9 9 9 8 8 8 8 8 8 8 8 8 8 8 8 8 8 8 8 8 8 8 9 9 9 10 10 11 11 12 12 13 13 13 13 13
12 11 11 10 10 9 9 9 9 8 8 8 8 8 8 8 8 8 8 8 8 8 8 8 8 7 7 7 8 8 8 9 9 10 10 11 11 12 12 12 13 13 12
11 11 10 10 9 9 9 9 8 8 8 8 8 8 8 8 8 8 8 7 7 8 8 8 8 8 7 7 7 8 8 8 9 9 10 10 11 11 12 12 12 12 13
11 11 10 9 9 9 9 8 8 8 8 8 8 8 8 8 8 8 8 7 7 7 7 7 7 7 7 7 7 7 7 8 8 9 9 10 10 11 11 11 12 12 12
11 10 10 9 9 9 8 8 8 8 7 7 8 8 8 8 8 8 7 7 7 7 7 7 7 7 7 7 6 6 7 8 8 8 9 9 10 10 10 11 11 11 11
11 10 10 9 9 8 8 8 8 7 7 7 8 8 8 8 8 8 7 7 7 7 7 7 7 7 7 6 6 6 6 7 8 8 8 9 9 10 10 10 11 11 11
11 10 10 9 8 8 8 8 7 7 7 7 8 8 8 8 8 8 7 7 7 6 6 7 7 6 6 6 6 6 6 7 7 7 8 9 9 9 10 10 10 11 11
11 10 10 9 8 8 8 7 7 7 7 7 8 8 8 8 8 7 7 7 6 6 6 6 6 6 6 6 6 6 6 6 6 7 7 8 9 9 10 10 10 10 11
11 10 10 9 9 8 7 7 7 7 7 8 8 8 8 8 8 7 7 7 6 6 6 6 6 6 6 6 6 6 6 6 6 6 7 8 9 9 9 10 10 10 10
11 10 10 9 9 8 8 7 7 7 8 8 8 8 8 8 8 7 7 7 6 6 6 6 6 6 6 6 6 6 6 6 6 6 7 8 8 9 9 9 10 10 10
11 10 10 9 9 9 8 8 8 8 8 8 8 8 8 8 8 7 7 7 6 6 6 6 6 6 6 5 5 6 6 6 6 6 7 7 8 8 9 9 9 9 10
11 11 10 9 9 8 8 9 9 8 8 8 8 8 8 8 8 7 7 6 6 6 6 6 6 6 6 6 5 6 6 6 6 6 7 7 8 8 9 9 9 9 9
11 10 10 9 9 8 8 8 8 9 9 9 8 8 8 8 8 7 7 6 6 6 6 6 6 6 6 6 6 6 6 6 6 6 7 7 7 8 8 8 9 9 9
11 10 10 9 8 8 8 7 7 8 8 9 9 8 8 8 8 7 7 7 6 6 6 6 6 6 6 6 6 6 6 6 6 7 7 7 7 8 8 8 8 9 9
11 10 9 9 8 8 7 7 7 8 8 8 8 8 8 8 8 7 7 7 7 7 6 6 7 7 6 6 6 6 6 6 7 7 7 7 7 8 8 8 8 9 9
11 10 9 9 8 8 7 7 7 8 8 8 8 8 8 8 8 7 7 7 7 7 7 7 7 7 7 7 7 7 7 7 7 7 7 7 7 8 8 8 8 8 9
11 10 9 9 8 7 7 7 7 8 8 8 8 8 8 7 7 7 7 7 7 7 7 7 7 7 7 7 7 7 7 7 7 7 7 7 7 8 8 8 8 8 9
11 10 9 8 8 7 7 7 7 7 7 8 8 8 8 7 7 7 7 7 7 7 7 7 7 7 7 7 7 7 7 8 8 8 8 8 8 8 8 8 8 8 8
10 10 9 8 7 7 7 7 7 7 7 7 7 8 8 8 7 7 7 7 7 7 7 7 7 8 8 8 8 8 8 8 8 8 8 8 8 8 8 8 8 8 8
10 9 8 8 7 7 7 7 7 7 7 7 7 7 7 7 7 7 7 7 7 7 7 7 7 7 8 8 8 8 8 8 8 8 8 8 8 8 8 8 8 8 8
9 8 8 7 7 7 6 6 7 7 7 7 7 7 7 7 7 7 7 7 7 7 7 7 7 7 8 8 8 8 8 8 8 8 8 8 8 8 8 8 8 8 8
8 8 7 7 6 6 6 6 6 6 6 7 7 7 7 7 7 7 7 7 7 7 7 7 7 7 7 8 8 8 8 8 8 8 8 8 8 8 8 8 8 8 8

GEFSGL_850_meantemp_048.txt.gz
Temperature
14 13 13 12 12 11 11 11 11 10 10 10 10 10 9 9 9 9 9 9 9 9 9 9 9 9 9 10 11 11 11 12 12 13 13 13 13 13 14 14 14 14 15
14 13 13 12 12 12 11 11 10 10 10 10 10 9 9 9 9 9 9 9 9 9 9 9 9 9 9 9 10 10 11 11 11 12 12 12 12 13 13 14 14 14 14
14 13 13 12 12 11 11 11 10 10 10 10 9 9 9 9 9 9 8 8 8 8 8 8 8 9 9 9 9 10 10 11 11 11 12 12 12 12 13 13 13 14 14
14 14 13 12 12 12 11 11 10 10 10 10 9 9 9 9 9 9 8 8 8 8 8 8 8 8 8 8 9 9 9 10 10 11 11 12 12 12 12 13 13 13 14
14 14 13 12 12 11 11 10 10 10 10 9 9 9 9 9 9 9 8 8 8 8 8 8 8 8 8 8 8 9 9 9 10 11 11 12 12 12 12 13 13 13 13
14 14 13 12 12 11 11 10 10 10 9 9 9 9 9 9 9 8 8 8 8 8 8 8 8 8 8 8 8 8 8 8 9 10 11 11 12 12 12 12 12 12 12
14 14 13 12 12 11 11 10 10 9 9 9 9 9 8 8 8 9 8 8 8 8 8 8 8 9 8 8 8 8 8 8 8 8 9 10 11 11 11 11 12 12 12
14 14 13 12 12 11 11 10 10 9 9 9 9 9 8 8 8 8 8 8 8 8 8 8 8 8 8 8 8 8 8 8 8 8 8 9 9 10 10 10 11 12 12
15 14 13 12 12 11 10 10 10 9 9 9 8 8 8 8 8 8 8 8 8 8 8 8 8 8 8 7 7 7 7 8 8 8 8 8 8 9 9 10 10 11 11
15 14 13 13 12 12 11 11 10 9 9 9 8 8 8 8 9 9 8 8 8 8 8 8 8 8 7 7 7 7 7 7 8 8 8 8 8 9 9 9 10 11 11
14 14 13 13 12 12 11 11 10 9 9 9 9 9 8 9 9 9 8 8 8 8 8 8 8 8 7 7 7 7 7 7 7 7 8 8 8 8 9 9 10 10 11
14 14 13 13 12 11 11 11 10 9 9 9 9 9 9 9 9 9 8 8 8 8 8 8 8 7 7 7 7 7 7 7 6 7 7 8 9 9 9 10 10 10 10
15 14 14 13 12 12 11 10 10 9 9 9 9 9 9 9 9 8 8 8 8 8 8 7 7 7 7 7 7 7 6 6 6 6 7 8 9 9 10 9 9 10 10
15 14 14 13 12 11 11 10 10 9 9 9 9 9 9 9 9 8 8 8 7 7 7 7 7 7 7 7 6 6 6 6 6 6 7 7 8 9 9 9 9 10 10
15 14 13 12 12 12 11 11 10 9 9 9 8 8 8 8 9 8 8 8 7 7 7 7 7 7 7 7 7 7 6 6 6 6 7 7 8 8 9 9 9 9 9
14 13 13 12 12 11 11 10 10 10 9 9 9 8 8 8 8 8 8 8 8 7 7 6 7 7 7 7 7 7 7 7 7 6 7 7 7 8 8 9 9 9 9
14 13 13 12 12 11 11 10 10 10 10 9 9 9 8 8 8 8 8 8 7 7 7 7 7 7 7 7 7 7 7 7 7 7 7 7 7 7 8 8 8 9 9
13 13 12 12 11 11 11 10 10 10 10 9 9 8 8 8 8 8 8 8 7 7 7 7 7 7 7 7 8 8 7 7 7 7 7 7 7 7 7 8 8 9 9
12 12 11 11 11 11 10 10 10 10 9 9 9 9 8 8 8 8 8 8 7 8 8 8 8 8 8 8 8 7 7 7 7 7 7 7 7 7 8 8 8 9 9
11 12 11 11 11 11 10 10 10 10 9 9 9 9 8 8 8 8 8 7 7 8 8 8 8 8 8 8 7 7 7 7 7 7 7 7 7 7 8 8 8 8 9
11 11 11 10 10 10 10 10 9 9 9 9 9 8 8 8 8 8 8 8 8 8 8 7 8 8 8 7 7 7 7 7 8 7 7 7 7 7 8 8 8 8 9
11 11 11 10 10 9 9 9 9 9 8 8 8 8 8 7 8 8 8 8 8 7 7 7 7 8 8 8 8 8 8 8 8 8 8 8 7 7 8 8 8 8 9
9 10 10 10 9 9 8 9 9 8 8 8 8 8 8 8 7 7 7 7 7 7 7 7 7 7 8 8 8 8 8 8 8 8 8 8 8 8 8 8 8 8 8
9 9 9 9 9 8 8 8 8 8 8 7 7 7 7 7 7 7 7 7 7 7 7 7 7 7 7 7 7 8 8 8 8 8 8 8 8 8 8 8 8 8 8
8 8 8 8 8 8 7 7 7 7 7 7 7 7 7 7 7 7 7 7 7 7 7 7 7 7 7 7 7 7 7 7 8 8 8 8 8 8 8 8 8 8 8
7 7 7 7 7 7 6 6 6 6 6 6 6 6 6 6 6 6 6 6 7 7 7 7 7 7 7 7 7 7 7 7 7 8 8 8 8 8 8 8 8 8 8

GEFSGL_850_meantemp_054.txt.gz
Temperature
17 16 16 15 15 14 14 13 13 13 12 12 12 12 12 11 11 11 11 11 11 11 11 11 11 11 11 11 11 11 11 12 12 12 12 13 13 13 13 14 14 14 14
17 16 16 15 15 14 14 13 13 13 12 12 12 12 11 11 11 11 11 11 11 10 10 10 10 10 10 10 10 10 11 11 11 11 12 12 12 13 13 13 13 14 14
17 17 16 15 15 14 14 14 13 13 13 12 12 12 11 11 11 11 11 11 10 10 10 10 10 10 10 10 10 10 10 10 11 11 11 12 12 12 13 13 13 13 13
18 17 16 16 15 15 14 14 13 13 13 12 12 12 11 11 11 11 10 10 10 10 10 10 10 10 10 10 10 10 10 10 10 10 11 11 12 12 12 13 13 13 13
18 17 17 16 16 15 15 14 14 13 13 12 12 11 11 11 11 11 11 10 10 10 10 10 10 10 10 10 10 10 10 10 10 10 10 11 11 12 12 12 13 13 13
18 18 17 16 16 16 15 15 14 13 13 12 12 12 11 11 11 11 10 10 10 10 10 10 10 10 10 10 10 10 10 10 10 9 9 10 10 11 11 11 12 12 12
18 18 17 17 16 16 15 15 14 14 13 13 12 12 11 11 10 10 10 10 10 10 10 10 9 9 10 10 10 9 9 9 9 9 9 10 10 10 10 11 11 11 11
18 18 17 17 16 16 15 15 14 14 13 13 12 12 12 11 11 10 10 10 10 10 10 10 10 10 10 10 9 9 9 9 9 9 9 10 10 10 10 10 10 10 11
18 18 18 17 16 16 16 15 15 14 14 13 13 12 12 11 11 10 10 10 10 10 10 10 9 9 10 9 9 9 9 9 9 9 9 9 9 9 9 9 9 9 10
19 18 18 17 16 16 16 16 15 15 14 14 13 12 12 11 11 10 10 10 9 10 10 10 10 10 10 9 9 9 9 9 9 8 9 9 9 9 9 9 9 9 9
19 18 17 17 17 16 16 16 15 15 14 13 13 13 12 12 11 11 10 10 10 9 9 9 9 9 10 9 9 9 9 9 8 8 8 8 9 9 9 9 9 9 9
18 18 17 17 16 16 15 15 15 15 14 13 13 13 12 12 12 11 11 10 10 9 9 9 9 9 9 9 9 9 8 8 8 8 8 8 8 9 9 9 9 10 10
17 17 17 16 16 16 15 15 14 14 13 13 13 12 12 12 12 11 11 10 10 9 9 9 9 9 9 8 8 8 8 8 8 8 7 8 8 8 9 9 10 10 10
17 16 16 16 15 15 15 14 14 13 13 13 13 12 12 12 12 11 11 10 10 9 9 9 9 8 8 8 8 8 8 8 8 7 7 8 8 8 9 9 9 10 10
16 15 15 15 14 14 14 14 14 13 13 13 13 12 12 12 11 11 10 10 9 9 8 8 8 8 8 8 8 8 8 8 8 8 8 8 8 8 8 9 9 9 9
14 14 14 14 14 14 14 14 14 14 14 13 13 12 12 12 11 11 10 10 9 9 9 8 8 8 8 8 8 8 8 8 8 8 8 8 8 8 8 9 9 9 9
13 13 13 13 14 14 14 14 14 14 13 13 13 12 12 12 11 11 10 10 9 9 9 8 8 8 8 8 8 8 9 9 9 8 8 8 8 8 8 9 9 9 9
12 12 12 13 13 13 13 14 14 14 13 13 13 12 12 12 11 11 10 9 9 9 9 9 8 8 8 8 8 9 9 9 9 9 9 9 8 8 8 8 9 9 9
11 11 12 12 12 13 13 13 13 13 13 13 13 12 12 11 11 10 10 9 9 9 8 8 8 8 8 9 9 9 9 9 9 9 9 9 8 8 8 8 9 9 9
11 11 11 12 12 12 13 13 13 13 13 12 12 12 11 11 10 10 10 10 9 9 9 9 9 9 9 9 9 9 9 9 9 9 8 8 8 8 8 8 8 8 9
10 10 10 11 11 12 12 12 12 12 12 12 11 11 11 10 10 10 10 9 9 9 9 9 9 9 9 9 9 8 8 8 8 8 8 8 8 8 8 8 8 8 9
9 9 9 10 10 10 11 11 11 11 11 11 11 11 10 10 10 10 9 9 9 9 9 8 8 8 8 8 8 8 8 8 8 8 8 8 8 8 8 8 8 8 8
8 9 9 9 9 9 10 10 10 10 10 10 10 10 10 10 9 9 9 9 8 8 8 8 8 8 8 8 8 8 8 8 8 8 8 8 8 8 8 8 8 8 8
8 8 8 8 8 8 8 8 9 9 9 9 9 9 9 9 8 8 8 8 8 8 8 8 8 8 7 7 8 8 8 8 8 8 8 8 8 8 8 8 8 8 9
7 7 7 7 7 7 7 7 7 7 8 8 8 8 8 8 7 7 7 7 7 7 7 7 7 7 7 7 7 7 7 7 8 8 8 8 8 8 8 8 8 8 9
6 5 5 5 5 5 6 6 6 6 7 7 7 7 7 7 7 7 7 7 7 7 7 7 7 7 7 7 7 7 7 7 7 7 7 8 8 8 8 8 8 8 8

GEFSGL_850_meantemp_060.txt.gz
Temperature
19 19 18 18 17 17 17 16 15 15 14 14 14 13 13 12 12 12 12 11 11 11 11 11 11 11 11 11 10 10 10 10 10 11 11 11 12 12 12 12 13 13 13
19 19 19 18 18 17 17 17 16 15 15 14 14 13 13 12 12 12 12 11 11 11 11 11 11 11 11 10 10 10 10 10 10 10 11 11 11 11 12 12 12 12 13
20 19 19 18 18 18 17 17 16 16 15 14 14 14 13 13 12 12 12 11 11 11 11 11 11 10 10 10 10 10 10 10 10 10 10 11 11 11 11 11 12 12 12
20 20 19 19 18 18 18 17 17 16 16 15 15 14 14 13 13 12 12 11 11 11 11 11 10 10 10 10 10 10 10 10 10 10 10 10 10 11 10 11 11 11 12
20 20 20 19 19 18 18 17 17 17 16 16 15 15 14 14 13 12 12 12 11 11 11 10 10 10 10 10 10 10 10 10 10 10 10 10 10 10 10 10 10 11 11
21 21 20 19 19 19 18 18 17 17 16 16 16 15 15 14 14 13 12 12 11 11 11 11 10 10 10 10 10 10 10 9 9 9 9 9 10 10 10 10 10 10 10
21 21 20 20 19 19 18 18 17 17 17 16 16 15 15 15 14 13 12 12 12 11 11 11 11 11 10 10 10 10 9 9 9 9 9 9 10 10 9 9 9 9 10
21 21 20 20 19 19 18 18 18 17 17 16 16 16 15 15 14 14 13 12 12 12 11 11 11 11 10 10 10 10 10 10 9 9 9 9 9 9 9 9 9 9 9
21 21 20 20 19 19 18 18 18 17 17 16 16 16 15 15 14 14 13 13 12 12 12 11 11 10 10 10 9 9 10 10 10 9 9 9 9 9 9 9 9 9 9
21 21 20 20 19 19 18 18 17 17 16 16 16 16 15 15 14 14 13 13 12 12 12 11 11 10 10 10 9 9 9 10 9 9 9 9 9 9 9 8 8 8 8
20 19 19 19 18 18 18 17 17 16 16 16 15 15 15 15 14 14 13 13 12 12 12 12 11 10 10 10 9 9 9 9 9 9 9 9 9 9 9 8 8 8 8
18 18 18 17 17 17 17 16 16 16 15 15 15 15 15 14 14 14 13 13 12 12 12 11 11 10 10 10 10 9 9 9 9 8 8 8 8 9 9 8 8 8 8
17 16 16 16 16 16 15 15 15 15 15 14 14 14 14 14 14 13 13 13 12 12 12 11 11 10 10 10 9 9 9 9 8 8 8 8 8 8 8 8 8 8 8
15 15 14 14 14 14 14 14 14 14 14 14 14 13 14 14 13 13 13 12 12 12 11 11 10 10 10 9 9 9 9 9 8 8 8 8 8 8 8 8 8 8 8
13 13 13 13 13 13 13 13 12 12 12 12 13 13 13 13 13 13 12 12 12 11 11 11 10 10 10 9 9 9 9 8 8 8 8 8 8 8 8 8 8 8 8
12 12 11 11 11 11 11 12 12 12 12 12 12 12 12 12 12 12 12 12 11 11 10 10 10 10 9 9 9 9 9 8 8 8 8 8 8 8 8 8 8 8 8
11 10 10 10 10 10 10 10 10 11 11 11 12 12 12 12 12 12 12 11 11 10 10 10 10 10 9 9 9 9 9 9 8 8 8 8 8 8 8 8 8 8 8
10 10 10 9 9 9 9 9 9 9 10 10 11 11 11 11 11 11 11 11 10 10 10 10 10 10 9 9 9 9 9 8 8 8 8 8 8 8 8 8 8 8 8
9 9 9 9 9 9 9 9 9 9 9 9 10 10 11 11 11 11 11 11 10 10 10 10 10 9 9 9 9 9 8 8 8 8 8 8 8 8 8 8 8 8 8
9 9 8 8 8 8 8 8 8 8 8 8 9 9 9 10 10 10 10 10 10 10 10 9 9 9 9 9 9 8 8 8 8 8 8 8 8 8 8 8 8 8 8
8 8 8 8 7 7 7 7 7 7 7 7 7 8 8 9 9 9 9 9 9 9 9 9 9 9 8 8 8 8 8 8 8 8 8 8 8 8 8 8 8 8 8
8 7 7 7 7 6 6 6 6 6 6 6 7 7 7 8 8 8 8 8 8 8 9 8 8 8 8 8 8 8 8 8 8 8 8 8 8 8 8 8 8 8 8
7 7 6 6 6 5 5 5 5 5 5 6 6 6 7 7 7 7 7 7 8 8 8 8 8 8 8 8 8 7 7 7 7 8 8 8 8 8 8 8 8 8 8
6 6 5 5 4 4 4 4 4 4 4 5 5 6 6 6 6 6 7 7 7 7 7 7 7 7 7 7 7 7 7 7 7 7 7 7 7 8 8 8 8 8 8
5 4 4 3 3 3 3 3 3 3 4 4 4 5 5 5 5 6 6 6 6 6 7 7 7 7 7 7 7 7 7 7 7 7 7 7 7 7 7 7 7 8 8
3 3 2 2 2 2 2 2 2 2 3 3 3 4 4 4 5 5 5 5 6 6 6 6 7 7 7 7 6 6 7 6 6 6 6 7 7 7 7 7 7 7 7

GEFSGL_850_meantemp_066.txt.gz
Temperature
19 18 18 17 17 17 16 16 16 16 15 15 15 14 14 13 13 13 12 12 12 12 11 11 11 11 11 11 10 10 10 10 10 10 11 11 11 11 11 11 12 12 12
19 19 18 18 17 17 17 17 17 16 16 15 15 15 14 14 13 13 13 12 12 12 12 11 11 11 11 11 10 10 10 10 10 10 10 11 11 11 11 11 11 11 12
20 19 19 18 18 18 18 18 17 17 17 16 16 16 15 15 14 14 13 13 13 12 12 12 11 11 11 11 10 10 10 10 10 10 10 10 10 10 10 11 11 11 11
20 20 19 19 19 19 18 18 18 17 17 17 16 16 16 15 15 14 14 14 13 13 12 12 12 11 11 11 10 10 10 10 10 10 10 10 10 10 10 10 10 11 11
20 20 20 20 19 19 19 19 18 18 18 17 17 17 16 16 16 15 15 14 14 13 13 13 12 12 11 11 11 10 10 10 10 10 10 10 10 10 10 10 10 10 10
21 20 20 20 19 19 19 19 18 18 18 17 17 17 17 16 16 15 15 15 14 14 14 13 13 12 12 11 11 11 10 10 10 10 10 10 10 10 10 10 9 9 10
21 20 20 20 19 19 19 19 18 18 18 18 17 17 17 17 16 16 15 15 15 14 14 13 13 13 12 11 11 11 10 10 10 10 9 10 10 10 10 9 9 9 9
20 20 19 19 19 19 19 18 18 18 18 17 17 17 17 17 16 15 15 14 14 14 14 14 13 13 12 12 11 11 11 10 10 10 10 10 10 10 9 9 9 9 9
19 19 18 18 18 18 18 18 18 17 17 17 17 16 16 16 16 15 15 14 14 14 14 14 13 13 13 11 11 11 11 11 10 10 10 9 9 9 9 9 9 8 8
17 17 17 17 17 17 17 17 16 16 16 16 16 16 15 15 15 15 15 14 14 14 14 14 13 13 13 12 11 11 11 11 11 10 10 9 9 9 9 9 9 8 8
15 15 16 16 16 16 15 15 15 15 15 15 15 15 15 15 15 14 14 14 13 13 13 13 13 13 12 12 11 11 11 11 10 10 10 10 9 9 9 9 9 8 8
14 14 14 14 14 14 14 14 13 13 13 13 13 13 14 14 14 14 13 13 13 12 12 13 13 13 12 12 11 11 11 10 10 10 9 10 9 9 9 9 8 8 8
13 13 12 12 12 12 12 12 12 12 12 12 12 12 12 12 13 13 13 12 12 12 12 12 12 12 12 11 11 11 10 10 10 9 9 9 9 9 9 8 8 8 8
11 11 11 11 11 11 11 11 11 11 10 10 11 11 11 11 11 12 12 12 12 11 11 11 11 11 11 11 11 11 10 10 10 9 9 9 9 9 8 8 8 8 8
10 10 10 10 10 10 10 10 9 9 9 9 9 9 9 10 10 10 10 10 11 11 11 10 11 11 11 11 11 10 10 10 9 9 9 9 9 8 8 8 8 8 8
10 10 9 9 9 9 9 9 9 9 9 9 9 9 9 9 9 9 10 10 10 10 10 10 10 10 11 11 10 10 10 10 9 9 9 9 8 8 8 8 8 8 8
9 9 9 9 9 8 8 8 8 8 9 9 9 8 8 8 8 9 9 9 9 9 9 10 10 10 10 10 10 10 10 10 9 9 9 8 8 8 8 8 8 8 8
9 9 8 8 8 8 8 7 7 7 7 7 8 8 8 7 8 8 8 8 9 9 9 9 9 9 10 10 10 9 9 9 9 9 8 8 8 8 8 8 8 8 8
9 8 8 8 8 7 7 7 6 6 6 6 6 6 7 7 7 7 7 7 7 8 8 8 9 9 9 9 9 9 8 8 8 8 8 8 8 8 8 8 8 8 8
8 8 7 7 7 7 6 6 6 5 5 5 5 5 5 5 5 6 6 6 6 7 7 7 8 8 8 8 8 8 8 8 8 8 8 8 8 8 8 8 8 8 8
8 7 7 7 6 6 5 5 4 4 4 4 4 4 4 4 4 5 5 6 6 6 6 7 7 7 7 7 7 7 7 8 8 8 8 8 8 7 7 7 7 7 7
7 7 6 6 5 5 4 3 3 3 3 3 3 3 3 4 4 4 4 5 5 5 6 6 6 6 6 7 7 7 7 7 7 7 7 7 7 7 7 7 7 7 7
6 6 5 4 4 3 3 2 2 2 2 2 2 2 3 3 3 4 4 4 4 5 5 5 6 6 6 6 6 6 7 7 7 7 7 7 7 7 7 7 7 7 7
5 4 4 3 2 2 2 1 1 1 1 1 2 2 2 2 3 3 3 3 4 4 5 5 5 5 6 6 6 6 6 6 6 7 7 6 7 7 7 7 7 7 7
4 3 2 2 1 1 1 1 1 1 1 1 1 1 1 2 2 2 3 3 3 4 4 4 5 5 5 5 6 6 6 6 6 6 6 6 6 6 6 6 6 7 7
2 2 1 0 0 0 -0 -0 -0 0 0 0 0 1 1 1 2 2 2 3 3 3 4 4 4 5 5 5 5 6 6 6 6 6 6 6 6 6 6 6 6 6 6

GEFSGL_850_meantemp_072.txt.gz
Temperature
18 18 18 18 18 18 17 17 17 16 16 16 15 15 15 14 14 14 13 13 13 12 12 12 12 12 12 12 12 12 12 12 13 13 13 13 12 12 12 12 12 12 12
19 19 19 19 18 18 18 18 17 17 17 16 16 16 15 15 15 14 14 14 13 13 13 13 13 12 12 12 12 12 12 12 12 12 13 13 12 11 11 11 12 12 12
19 19 19 19 19 19 18 18 18 17 17 17 17 16 16 16 15 15 15 15 14 14 14 13 13 13 12 12 12 12 12 12 12 12 12 12 12 12 11 11 11 11 12
19 19 19 19 19 19 19 18 18 18 18 17 17 17 17 16 16 16 16 15 15 15 15 14 14 13 13 13 12 12 12 12 12 12 12 12 12 12 11 11 12 12 12
19 19 19 19 19 19 19 19 18 18 18 18 17 17 17 16 16 16 16 16 16 16 15 15 15 15 14 14 13 13 12 12 12 12 13 13 13 12 12 12 12 12 12
19 19 19 19 19 19 18 18 18 18 18 17 17 17 17 17 16 17 16 16 15 15 15 15 15 15 15 15 15 14 13 12 12 12 13 13 12 12 12 11 12 12 12
18 18 17 17 17 18 18 17 18 18 18 18 17 17 17 17 17 17 16 16 15 15 15 15 15 15 14 15 15 15 14 14 13 12 12 12 12 12 11 11 11 11 11
17 17 16 16 16 17 17 17 17 17 17 17 17 17 17 17 16 16 16 15 15 15 14 14 14 14 14 14 14 13 14 14 14 13 13 13 12 11 11 10 10 10 10
16 16 16 16 16 16 16 16 16 16 16 16 16 16 16 16 15 15 15 14 14 14 14 14 14 14 14 14 13 13 13 13 13 13 13 13 12 12 11 10 10 10 11
15 15 15 15 15 15 15 15 15 15 15 15 14 14 14 14 14 14 14 13 13 13 13 13 13 13 13 13 13 13 12 13 12 12 12 12 12 12 11 11 10 10 11
14 14 14 14 14 14 14 14 14 14 13 13 13 13 13 13 13 13 12 12 12 12 12 13 13 13 13 13 12 12 12 12 12 11 11 11 11 11 11 11 10 10 11
13 13 12 12 12 12 12 12 12 12 12 12 12 12 12 11 11 11 11 11 11 11 11 11 12 12 11 11 11 12 12 11 11 11 11 11 11 11 11 11 10 10 10
11 11 11 11 11 11 11 11 11 11 11 11 11 11 11 11 11 10 10 10 10 10 10 10 10 10 11 10 11 11 11 10 10 10 11 11 12 12 11 11 10 10 9
10 10 10 10 10 10 10 10 10 10 10 10 10 10 10 10 10 9 9 9 9 9 9 9 9 9 10 10 10 10 10 10 10 10 10 11 11 11 11 11 10 10 10
10 10 10 10 10 9 9 9 9 9 9 8 8 8 8 8 8 8 8 7 7 8 8 8 8 9 9 10 10 10 10 10 9 9 10 10 10 11 11 10 10 10 10
10 10 10 10 10 9 9 9 9 8 8 8 8 7 7 7 7 7 7 7 7 7 7 7 8 8 9 9 10 10 10 9 9 9 9 10 10 10 10 10 10 10 10
9 9 9 9 9 9 9 9 9 9 8 8 7 7 6 6 6 6 6 6 7 7 7 7 7 8 8 9 9 9 9 9 9 9 9 9 9 9 9 9 10 10 9
8 9 8 9 9 9 8 8 8 8 8 8 7 6 6 5 5 5 5 5 6 6 6 7 7 7 7 8 8 9 9 9 9 9 8 8 9 9 9 9 9 9 9
8 8 8 8 8 8 8 8 7 7 7 6 6 6 5 5 4 4 4 5 5 5 6 6 6 6 6 7 7 7 8 8 8 8 8 8 8 8 8 8 9 9 8
8 8 7 7 7 7 7 7 6 6 6 5 5 5 4 4 4 4 4 4 4 4 4 5 5 5 5 6 6 6 7 7 7 7 8 8 8 8 8 8 8 8 8
8 7 7 7 7 6 6 5 5 5 4 4 4 3 3 3 3 3 3 3 3 3 3 4 4 4 5 5 5 6 6 6 6 7 7 7 7 7 7 7 8 8 8
6 6 6 6 5 5 4 4 4 3 3 3 3 2 2 2 2 2 2 2 2 3 3 3 3 4 4 4 4 5 5 6 6 6 6 6 7 7 7 7 7 7 7
5 5 5 4 4 3 3 3 2 2 2 1 1 1 2 2 2 2 2 2 2 2 2 2 3 3 3 3 4 4 5 5 5 6 6 6 6 6 7 7 7 7 7
4 4 3 3 2 2 2 1 1 1 1 1 1 1 1 1 1 1 1 1 1 2 2 2 2 3 3 3 3 4 4 5 5 5 5 6 6 6 6 6 7 7 7
3 2 2 1 1 1 1 1 0 0 0 0 0 0 0 0 0 0 0 1 1 1 1 2 2 2 3 3 3 3 4 4 5 5 5 5 6 6 6 6 6 6 6
2 1 1 1 0 0 0 -0 -0 -0 -0 -0 -0 -0 -0 -0 -0 -0 0 0 0 1 1 1 2 2 2 3 3 4 4 4 5 5 5 5 5 5 5 5 6 6 6

GEFSGL_850_meantemp_078.txt.gz
Temperature
18 18 18 18 18 18 18 17 17 17 17 17 17 16 16 16 16 16 16 15 15 15 15 15 15 15 15 15 15 15 14 14 14 15 15 15 15 15 15 14 14 14 13
18 18 18 18 18 18 18 18 18 17 17 17 17 17 16 16 16 16 16 16 16 16 16 15 15 15 16 16 15 15 15 14 14 15 15 15 14 14 14 14 14 13 13
19 18 18 18 18 18 18 18 18 18 18 17 17 17 17 17 16 17 17 17 16 16 16 16 16 16 16 16 16 16 15 15 15 14 15 14 14 14 14 14 14 14 13
19 19 18 18 18 18 18 18 18 18 18 18 17 17 17 17 17 17 17 17 17 17 16 16 16 16 16 16 16 16 15 15 15 14 14 14 14 14 14 14 14 14 13
20 19 19 19 18 18 18 18 18 18 18 18 17 17 17 17 17 17 17 17 17 17 16 16 16 16 16 15 15 15 15 14 14 14 14 14 14 14 14 14 14 14 14
20 19 19 18 18 18 18 17 17 17 17 17 17 17 17 17 17 17 17 16 16 16 16 16 16 16 16 15 15 15 15 14 14 14 14 14 14 14 14 14 14 14 14
19 19 19 18 18 17 17 17 17 17 17 17 16 16 16 16 16 16 16 16 16 16 15 15 15 15 15 15 15 15 15 15 14 14 14 14 14 14 14 14 14 13 13
19 18 18 18 17 17 17 17 16 16 16 16 16 16 16 16 15 15 15 15 15 15 15 14 14 14 14 14 14 14 14 14 14 14 14 14 15 15 14 14 13 13 13
17 16 17 17 17 16 16 16 16 16 15 15 15 15 15 15 15 14 14 14 14 14 14 13 13 13 13 13 13 13 13 13 13 13 13 13 14 14 13 13 12 12 12
15 15 15 15 15 15 15 15 15 15 15 14 14 14 14 14 14 14 13 13 13 12 12 12 12 12 12 12 12 12 12 13 13 13 13 13 13 13 13 12 12 11 11
14 14 14 14 14 14 14 14 14 14 14 14 13 13 13 13 13 13 12 12 12 11 11 11 11 11 11 12 12 12 12 12 12 12 12 12 12 12 12 12 12 12 11
13 13 13 13 13 13 13 12 12 13 13 13 13 13 13 12 12 12 11 11 11 10 10 10 10 10 10 11 11 11 11 11 11 11 11 11 11 11 12 12 12 12 12
12 12 12 12 12 12 12 12 12 12 12 12 12 12 11 11 11 10 10 10 9 9 9 9 9 9 9 10 10 10 10 10 10 10 10 10 10 11 11 11 11 11 12
11 11 11 11 11 12 12 11 11 11 11 11 10 10 10 10 10 9 9 9 9 8 8 8 9 9 9 9 9 9 10 10 10 10 10 10 10 10 10 11 11 11 11
11 11 11 11 11 11 11 11 11 11 10 10 10 9 9 9 8 8 8 7 7 7 7 7 7 7 7 8 8 9 9 9 9 9 10 10 10 10 10 10 10 11 11
10 10 10 11 11 11 11 11 11 11 10 10 10 9 9 8 8 7 7 7 6 6 6 6 6 6 6 7 7 8 8 8 8 9 9 9 9 9 9 10 10 10 10
10 10 10 10 10 10 10 10 10 10 10 10 9 9 8 7 7 7 6 6 6 6 6 6 6 6 6 6 6 6 6 7 7 7 8 8 8 9 9 9 9 9 9
10 10 10 10 10 10 10 10 10 9 9 9 8 8 7 6 6 6 5 5 5 5 5 5 5 5 5 5 5 5 5 5 6 6 7 7 7 7 8 8 9 9 9
9 9 9 9 9 9 9 9 9 8 8 8 7 7 6 5 5 5 5 4 4 4 4 4 4 4 4 4 4 4 4 4 5 5 5 6 6 7 7 7 8 8 8
9 9 9 9 9 9 8 8 8 7 7 6 6 5 4 4 4 4 4 3 3 3 3 3 3 3 3 3 3 3 3 4 4 4 5 5 6 6 6 7 7 7 8
8 8 8 8 8 7 7 6 6 6 5 5 4 4 3 3 3 3 3 3 2 2 2 2 2 2 2 2 2 3 3 3 3 4 4 5 5 5 6 6 7 7 7
8 8 7 7 7 6 5 5 5 4 4 3 3 2 2 2 2 2 2 2 2 2 1 1 1 2 2 2 2 2 2 3 3 3 4 4 4 5 5 6 6 6 7
7 7 6 6 5 5 4 4 3 3 2 2 2 1 1 1 1 1 1 1 1 1 1 1 1 1 1 1 2 2 2 2 3 3 3 4 4 4 5 5 6 6 6
6 6 5 5 4 4 3 3 2 2 1 1 1 1 1 0 0 0 0 0 0 1 1 1 1 1 1 1 1 1 2 2 2 3 3 3 4 4 5 5 5 6 6
5 4 4 3 3 3 2 2 2 1 1 1 0 0 0 0 -0 -0 -0 -0 -0 0 0 0 0 0 0 1 1 1 2 2 2 3 3 3 4 4 4 5 5 5 5
4 3 3 3 2 2 2 1 1 1 1 0 0 -0 -0 -0 -0 -1 -1 -1 -1 -0 -0 -0 -0 -0 0 0 1 1 2 2 3 3 3 3 4 4 4 4 5 5 5

GEFSGL_850_meantemp_084.txt.gz
Temperature
17 17 17 17 17 17 17 17 17 17 16 16 16 16 16 16 16 16 16 16 16 16 16 16 16 15 15 15 15 15 15 15 15 15 15 15 15 15 15 15 15 14 14
18 18 17 17 17 17 17 17 17 17 17 17 17 17 16 16 16 16 16 16 16 16 16 16 16 16 16 15 15 15 15 15 15 15 16 15 15 15 15 15 15 15 14
18 18 17 17 17 18 18 17 17 17 17 17 17 17 17 17 17 17 16 16 16 16 16 16 16 16 16 16 15 15 15 15 15 15 15 15 15 15 15 15 15 15 15
18 18 18 18 18 18 18 17 17 17 17 17 17 17 17 17 17 17 16 16 16 16 16 16 16 16 16 15 15 15 15 15 15 15 15 15 15 15 15 15 15 15 15
18 18 18 18 18 18 18 17 17 17 17 17 17 17 16 16 16 16 16 16 16 16 16 16 16 15 15 15 15 15 15 14 14 14 14 15 15 15 15 15 14 15 15
18 18 18 18 18 17 17 17 17 17 17 17 17 16 16 16 16 16 16 16 16 16 16 15 15 15 15 14 14 14 14 14 14 14 14 14 14 14 14 14 14 14 14
18 18 18 17 17 17 17 17 17 16 16 16 16 16 16 16 15 15 15 15 15 15 15 15 14 14 14 14 14 14 13 13 13 13 13 13 13 13 13 13 13 13 13
17 17 17 16 16 16 16 16 16 16 15 15 15 15 15 15 15 14 14 14 14 14 14 13 13 13 13 13 13 13 13 13 13 12 12 12 12 12 12 12 12 12 12
16 16 16 16 15 15 15 15 15 15 14 14 14 14 14 14 13 13 13 13 13 13 12 12 12 12 12 12 12 12 12 12 12 12 12 12 12 12 12 12 12 12 12
15 15 14 14 14 14 14 14 14 14 14 13 13 13 13 13 12 12 12 12 12 12 12 11 11 11 11 11 11 11 11 11 11 11 11 11 11 11 11 11 11 11 11
13 14 13 13 13 13 13 13 13 13 13 12 12 12 12 12 11 11 11 11 11 11 11 10 10 10 10 10 10 9 9 9 9 10 10 10 11 11 11 11 11 10 10
13 13 13 13 12 12 12 12 12 12 12 11 11 11 11 11 10 10 10 10 9 9 9 9 9 9 9 9 9 9 8 8 8 8 8 9 9 9 10 10 10 10 10
12 12 12 12 12 12 11 11 11 11 11 11 11 10 10 10 10 9 9 9 9 8 8 8 8 8 8 7 8 7 7 7 7 7 7 7 7 8 8 8 9 9 9
11 11 11 11 11 11 11 11 11 10 10 10 10 10 9 9 9 8 8 8 8 7 7 7 7 7 6 6 6 6 6 6 6 6 6 6 7 7 7 7 8 8 8
11 11 11 10 10 10 10 10 10 10 10 9 9 9 9 8 8 7 7 7 7 6 6 6 6 6 6 5 5 5 5 5 5 5 5 5 6 6 6 7 7 7 7
10 10 10 10 10 10 10 10 9 9 9 9 8 8 8 7 7 6 6 6 6 5 5 5 5 4 4 4 4 4 4 4 4 4 4 4 4 5 5 6 6 6 6
10 10 10 9 9 9 9 9 9 9 8 8 8 7 7 6 6 6 5 5 5 4 4 4 4 3 3 3 3 3 3 3 3 3 3 3 4 4 4 4 4 5 5
9 9 9 9 9 9 8 8 8 8 7 7 6 6 6 5 5 5 4 4 4 4 3 3 2 2 2 2 2 2 2 2 2 2 3 3 3 3 3 4 4 4 4
9 9 9 8 8 8 8 7 7 7 6 6 5 5 5 4 4 4 3 3 3 2 2 2 2 1 1 1 1 1 2 2 2 2 2 2 2 3 3 3 3 4 4
8 8 8 8 7 7 7 6 6 5 5 4 4 3 3 3 3 2 2 2 1 1 1 1 1 1 1 1 1 1 1 1 1 1 2 2 2 2 2 3 3 3 4
8 7 7 7 6 6 6 5 5 4 4 3 2 2 2 1 1 1 1 1 0 0 0 0 0 0 0 0 0 0 0 0 1 1 1 1 2 2 2 2 3 3 3
7 6 6 6 6 5 4 4 4 3 2 2 2 1 1 1 1 0 0 -0 -0 -0 -0 -0 -0 -0 -0 -0 -0 -0 -0 0 0 0 1 1 1 2 2 2 3 3 3
6 6 5 5 4 4 3 3 3 2 2 1 1 1 1 0 0 -0 -0 -0 -1 -1 -1 -1 -1 -1 -1 -1 -1 -1 -0 -0 -0 0 0 1 1 2 2 2 3 3 3
5 5 5 4 4 3 3 2 2 1 1 1 1 0 0 -0 -0 -0 -1 -1 -1 -1 -1 -1 -1 -1 -1 -1 -1 -1 -1 -0 -0 0 0 1 1 1 2 2 2 3 3
4 4 4 3 3 2 2 2 1 1 1 0 0 -0 -0 -0 -1 -1 -1 -1 -1 -1 -1 -1 -1 -1 -1 -1 -1 -1 -0 -0 0 0 1 1 1 2 2 2 2 3 3
4 3 3 2 2 2 1 1 1 0 0 0 -0 -0 -1 -1 -1 -1 -1 -1 -1 -1 -1 -1 -1 -1 -1 -1 -1 -0 -0 -0 0 0 1 1 1 1 2 2 2 2 3

GEFSGL_850_meantemp_090.txt.gz
Temperature
17 17 16 16 16 16 16 16 16 16 16 16 16 15 15 15 15 14 14 14 14 14 14 14 14 14 14 14 14 14 14 14 14 15 15 15 15 15 15 15 15 15 15
17 17 17 16 16 16 16 16 16 16 16 16 16 16 15 15 15 15 15 14 14 14 14 14 14 14 14 14 14 14 14 14 14 15 15 15 15 15 15 15 15 15 15
17 17 17 16 16 16 16 16 16 16 16 16 16 16 16 16 15 15 15 15 15 14 14 14 14 14 14 14 14 14 14 14 14 14 15 15 15 15 15 15 15 15 15
17 17 17 17 16 16 16 16 16 16 16 16 16 16 16 16 15 15 15 15 15 15 14 14 14 14 14 14 14 14 14 14 14 14 14 14 15 15 15 15 15 15 15
17 17 16 16 16 16 16 16 16 16 16 16 16 16 16 15 15 15 15 15 15 15 14 14 14 14 14 14 14 14 14 14 14 13 14 14 14 14 14 14 14 14 14
17 17 17 16 16 16 16 16 16 16 16 16 16 15 15 15 15 15 15 15 15 14 14 14 14 14 14 14 14 14 14 13 13 13 13 13 13 13 13 13 12 12 13
17 16 16 16 16 16 16 16 16 16 16 16 15 15 15 15 15 15 14 14 14 14 14 13 13 13 13 13 13 13 13 12 12 12 12 12 12 12 12 12 12 12 12
16 16 16 16 15 15 15 15 15 15 15 15 15 14 14 14 14 14 14 13 13 13 13 12 12 12 12 12 12 12 12 12 11 11 11 11 11 11 11 10 10 11 11
15 15 15 15 15 15 15 15 15 14 14 14 14 13 13 13 13 13 12 12 12 12 11 11 11 11 11 11 11 11 11 11 10 10 10 10 10 10 10 10 10 10 10
14 14 14 14 14 14 14 14 13 13 13 13 13 12 12 12 12 11 11 11 11 11 11 10 10 10 10 10 10 10 10 10 10 10 9 9 9 9 9 9 9 8 8
14 14 13 13 13 13 13 13 12 12 12 12 11 11 11 11 11 11 10 10 10 10 10 9 9 9 9 9 8 8 8 8 8 8 8 8 8 8 8 8 7 7 7
13 13 13 12 12 12 12 11 11 11 11 11 10 10 10 10 10 10 9 9 9 9 9 8 8 8 8 7 7 7 7 7 7 7 7 7 7 7 7 7 7 7 6
12 12 12 11 11 11 11 11 11 10 10 10 10 9 9 9 9 8 8 8 8 8 7 7 7 7 6 6 6 6 6 6 5 5 5 5 5 5 5 6 6 6 6
11 11 11 11 11 10 10 10 10 10 10 9 9 9 8 8 8 8 8 7 7 7 6 6 6 6 5 5 5 5 5 4 4 4 4 4 4 4 4 4 4 5 5
11 10 10 10 10 10 10 9 9 9 9 9 8 8 8 7 7 7 6 6 6 6 5 5 5 5 4 4 4 4 4 3 3 3 3 3 3 3 3 3 3 3 3
10 10 10 10 9 9 9 9 8 8 8 8 7 7 7 6 6 5 5 5 4 4 4 4 4 3 3 3 3 3 2 2 2 2 2 2 2 2 2 3 3 3 3
10 9 9 9 9 8 8 8 8 7 7 7 6 6 5 5 5 4 4 4 3 3 3 3 2 2 2 2 2 1 1 2 1 1 1 1 1 1 2 2 2 2 2
9 9 8 8 8 8 7 7 7 6 6 6 5 5 4 4 4 3 3 3 3 2 2 2 1 1 1 1 1 1 1 1 1 1 1 1 1 1 1 1 1 1 1
8 8 8 8 7 7 7 6 6 5 5 5 4 4 3 3 2 2 2 2 1 1 1 1 0 0 0 -0 -0 -0 -0 -0 -0 0 0 -0 -0 0 0 0 1 1 1
8 7 7 7 6 6 6 5 5 4 4 3 3 2 2 2 2 1 1 1 0 0 -0 -0 -0 -0 -1 -1 -1 -1 -1 -0 -0 -0 -0 -0 -0 -0 -0 0 0 1 1
7 6 6 6 5 5 5 4 4 3 3 2 2 1 1 1 1 1 0 0 -0 -0 -1 -1 -1 -1 -1 -1 -1 -1 -1 -1 -1 -1 -1 -1 -1 -1 -0 0 0 1 1
6 6 5 5 4 4 4 3 3 2 2 1 1 1 0 0 0 -0 -0 -0 -1 -1 -1 -1 -1 -1 -1 -1 -2 -2 -1 -1 -1 -1 -1 -1 -1 -1 -0 -0 0 0 1
5 5 5 4 4 3 3 2 2 2 1 1 0 0 0 -0 -0 -1 -1 -1 -1 -1 -1 -1 -1 -1 -1 -1 -2 -2 -1 -1 -1 -1 -1 -1 -1 -1 -1 -1 -0 0 0
5 4 4 3 3 2 2 2 1 1 1 0 0 -0 -0 -0 -1 -1 -1 -1 -1 -1 -1 -1 -1 -1 -1 -1 -1 -1 -1 -2 -2 -1 -1 -1 -1 -1 -1 -1 -0 -0 0
4 3 3 3 2 2 1 1 1 0 0 0 -0 -0 -1 -1 -1 -1 -1 -1 -1 -1 -1 -1 -1 -1 -1 -1 -1 -1 -1 -2 -2 -1 -1 -1 -1 -1 -1 -1 -1 -0 -0
3 3 2 2 2 1 1 1 0 0 -0 -0 -0 -1 -1 -1 -1 -1 -1 -1 -1 -1 -1 -1 -1 -1 -1 -1 -1 -1 -1 -1 -1 -1 -1 -1 -1 -1 -1 -1 -1 -1 -0

GEFSGL_850_meantemp_096.txt.gz
Temperature
16 16 16 16 16 16 16 16 16 16 16 16 15 15 15 15 15 15 14 14 14 14 14 14 14 14 15 15 15 15 15 15 16 17 16 16 15 15 15 15 15 15 15
16 16 16 16 16 16 16 16 16 16 16 16 15 15 15 15 15 15 15 14 14 14 14 14 14 14 14 15 15 15 15 15 15 15 16 16 15 14 15 15 15 15 15
16 16 16 16 16 16 16 16 16 16 16 16 15 15 15 15 15 15 15 15 15 14 14 14 14 14 14 14 14 15 15 15 14 15 15 15 15 14 14 14 15 15 15
16 16 16 16 16 16 16 16 16 16 16 15 15 15 15 15 15 15 15 15 15 14 14 14 14 14 14 14 14 14 14 14 14 14 15 15 14 14 14 14 14 14 14
16 16 16 16 16 16 16 16 16 16 15 15 15 15 15 15 15 15 15 15 15 15 14 14 14 14 14 14 14 14 14 14 14 14 14 14 14 14 13 14 14 14 14
16 16 16 16 16 16 16 16 15 15 15 15 15 15 15 15 15 15 15 15 14 14 14 14 14 14 14 14 13 13 13 13 13 13 13 13 13 12 12 12 12 12 12
16 16 16 16 15 15 15 15 15 15 15 15 15 15 15 15 15 15 15 14 14 14 13 13 13 13 13 13 13 13 12 12 12 12 12 12 11 11 11 11 11 11 11
15 16 15 15 15 15 15 15 15 14 14 14 14 14 14 14 14 14 13 13 13 13 12 12 12 12 12 12 11 11 11 11 11 11 11 10 10 10 10 10 10 10 10
15 15 15 15 15 15 14 14 14 14 14 13 13 13 13 13 12 12 12 12 12 11 11 11 11 11 11 11 10 10 10 9 10 10 10 10 10 10 10 9 9 9 10
14 14 14 14 14 14 14 13 13 13 13 12 12 12 12 12 11 11 11 11 10 10 10 10 10 10 10 10 9 9 9 8 8 8 8 8 8 8 8 8 7 8 8
14 14 14 13 13 13 13 12 12 12 12 11 11 11 11 11 10 10 10 10 10 9 9 9 8 8 8 8 8 8 8 8 7 7 7 7 7 7 7 7 6 6 6
13 13 13 12 12 12 12 12 11 11 11 10 10 10 10 9 9 9 9 9 9 8 8 7 7 7 7 7 7 7 7 7 6 6 7 7 7 6 6 6 5 5 5
12 12 12 12 11 11 11 11 10 10 10 10 9 9 8 8 8 8 8 8 8 7 7 7 7 7 7 6 6 6 6 5 5 6 6 6 5 5 5 4 4 4 4
11 11 11 11 10 10 10 10 10 10 10 9 9 9 8 8 7 7 7 6 6 6 6 6 6 6 5 5 5 5 4 4 4 4 4 4 4 4 4 4 4 4 4
10 10 10 10 10 10 9 9 9 9 9 8 8 8 7 7 7 6 6 6 6 5 5 5 5 5 5 5 4 4 4 3 3 3 3 3 3 3 3 3 3 3 3
10 10 10 9 9 9 9 8 8 8 8 7 7 7 6 6 6 6 5 5 5 5 5 5 5 4 4 4 3 3 3 3 2 2 2 2 2 2 2 2 2 2 2
9 9 9 9 9 8 8 8 7 7 7 6 6 6 5 5 5 5 4 4 4 4 4 4 3 3 3 2 2 2 2 2 1 1 1 1 1 1 1 1 1 1 1
9 9 9 8 8 8 8 8 7 7 6 5 5 5 4 4 4 4 3 3 4 3 3 3 2 2 2 1 1 1 1 1 1 1 1 1 1 1 1 1 1 1 1
8 8 8 8 8 7 7 7 7 6 6 5 4 4 3 3 3 2 2 3 3 3 2 2 1 1 1 0 0 -0 -0 -0 -0 -0 0 0 -0 -0 -0 0 0 0 0
8 7 7 7 7 7 7 7 6 6 5 5 4 3 3 3 3 3 2 2 2 2 1 1 1 0 0 -0 -0 -0 -1 -1 -1 -1 -1 -1 -1 -1 -1 -1 -1 -1 -0
7 7 7 7 7 6 6 6 5 5 5 4 4 2 2 2 3 2 2 1 1 1 1 0 0 -0 -0 -0 -1 -1 -1 -1 -1 -1 -1 -1 -1 -1 -1 -1 -1 -1 -1
7 7 6 6 6 5 5 5 5 4 4 4 3 3 2 2 2 2 1 1 1 0 0 -0 -0 -1 -1 -1 -1 -1 -1 -1 -2 -2 -2 -2 -2 -2 -1 -1 -1 -1 -1
6 6 6 5 5 4 5 4 4 4 3 3 3 2 2 2 1 1 1 0 0 -0 -0 -1 -1 -1 -1 -2 -2 -2 -2 -2 -2 -2 -2 -2 -2 -2 -2 -1 -1 -1 -1
6 6 5 5 5 4 4 4 4 3 3 3 2 2 2 1 1 0 0 -0 -0 -1 -1 -1 -1 -2 -2 -2 -2 -2 -2 -2 -2 -2 -2 -2 -2 -2 -2 -2 -1 -1 -1
5 5 5 4 4 4 4 3 3 3 2 2 2 1 1 1 0 0 -0 -0 -1 -1 -1 -1 -2 -2 -2 -2 -2 -3 -2 -2 -2 -2 -2 -2 -2 -2 -2 -2 -1 -1 -1
5 4 4 4 4 4 3 3 3 2 2 2 1 1 1 0 0 -0 -0 -1 -1 -1 -1 -1 -2 -2 -2 -2 -2 -2 -2 -2 -2 -2 -2 -1 -2 -2 -2 -1 -1 -1 -1

GEFSGL_850_meantemp_102.txt.gz
Temperature
16 16 16 16 16 16 17 17 17 17 16 16 16 16 16 15 15 16 15 15 15 15 15 16 16 16 16 16 16 16 17 17 17 17 17 17 17 17 17 16 16 16 16
16 16 16 16 16 16 17 17 16 16 16 16 16 16 16 16 16 16 16 15 15 15 15 15 15 15 16 16 16 16 16 16 16 16 17 17 16 16 16 16 16 16 15
16 16 16 16 16 16 16 16 16 16 16 16 16 16 16 16 15 16 16 15 15 15 15 15 15 15 15 15 15 15 15 16 16 16 16 16 16 16 15 15 15 15 15
16 16 16 16 16 16 16 16 16 16 16 16 16 16 16 15 15 15 15 15 15 15 15 15 15 15 15 15 15 15 15 15 15 15 15 15 15 15 15 15 15 15 15
17 17 17 16 16 16 16 16 16 16 16 16 16 15 15 15 15 16 15 15 15 15 15 15 15 15 15 14 14 14 14 14 14 14 14 14 14 14 14 14 14 14 14
17 17 17 17 16 16 16 16 16 16 16 15 15 15 15 15 16 15 15 15 15 15 14 14 14 14 14 14 14 14 14 13 13 13 13 13 13 13 13 13 13 12 13
17 17 16 16 16 16 16 16 16 16 15 15 15 15 15 15 15 15 15 15 14 14 14 14 13 13 13 13 13 13 13 12 12 12 12 12 12 11 11 12 11 11 11
17 16 16 16 16 16 15 15 15 15 15 15 15 14 14 14 14 14 14 14 13 13 13 13 12 12 12 12 12 12 12 11 11 11 11 11 11 10 10 10 10 10 10
16 16 16 15 15 15 15 15 14 14 14 14 14 14 13 13 13 13 13 13 12 12 12 12 11 11 11 11 11 11 11 10 10 10 10 10 10 10 9 9 9 8 8
15 15 15 15 15 15 14 14 14 13 13 13 13 12 12 12 12 12 12 12 11 11 11 11 11 10 10 10 10 10 10 10 9 9 9 9 9 9 8 8 8 8 7
15 15 14 14 14 14 13 13 13 13 12 12 12 11 11 11 11 11 11 11 11 10 10 9 9 9 9 9 9 9 8 8 8 8 8 8 8 8 8 7 7 7 6
14 14 13 13 13 13 12 12 12 12 12 11 11 10 10 10 10 10 10 10 10 9 9 9 8 8 8 8 8 7 7 7 7 7 7 7 7 7 7 6 6 6 6
13 13 12 12 12 12 12 11 11 11 11 10 10 10 9 9 9 9 9 9 9 8 8 8 8 7 7 7 6 6 6 6 6 6 6 5 5 5 5 5 5 5 5
12 12 11 11 11 11 11 11 11 10 10 10 10 9 9 9 9 8 8 8 8 8 7 7 7 7 6 6 6 6 5 5 5 5 4 4 4 4 4 4 4 4 4
11 11 11 11 10 10 10 10 10 10 10 10 9 9 8 8 8 8 7 7 7 7 7 6 6 6 6 6 5 5 4 4 4 4 4 3 3 3 3 3 3 3 3
11 10 10 10 10 10 10 10 9 9 9 9 9 8 8 7 7 7 7 6 6 6 6 6 5 5 5 4 4 4 3 3 3 3 2 2 2 2 2 2 2 2 2
10 10 10 10 9 9 9 9 9 8 8 8 8 7 7 7 6 6 6 6 6 6 5 5 5 4 4 3 3 3 2 2 2 2 2 1 1 1 1 1 1 1 1
10 10 10 10 9 9 9 9 8 8 7 7 7 6 6 6 5 5 5 5 5 5 5 4 4 3 3 2 2 2 2 1 1 1 1 1 1 1 0 0 0 0 0
9 9 10 10 10 9 9 9 8 8 7 7 6 6 6 5 5 5 5 4 4 4 4 3 3 3 2 2 2 1 1 1 1 1 0 0 0 -0 -0 -0 -0 -0 -0
9 9 9 9 9 9 9 9 8 8 7 7 6 5 5 5 5 5 4 4 4 4 3 3 2 2 2 1 1 1 0 0 0 -0 -0 -0 -1 -1 -1 -1 -1 -1 -0
9 9 9 9 9 9 9 8 8 7 7 6 6 5 5 5 5 4 4 3 3 3 2 2 2 2 1 1 1 0 -0 -0 -1 -1 -1 -1 -1 -1 -1 -1 -1 -1 -1
9 9 9 8 8 8 8 8 7 7 6 6 6 5 5 4 4 4 3 3 3 2 2 2 1 1 1 0 -0 -0 -1 -1 -1 -1 -1 -1 -1 -1 -1 -1 -1 -1 -1
9 8 8 8 8 7 7 7 7 6 6 6 5 5 4 4 4 3 3 2 2 2 1 1 1 1 0 -0 -0 -1 -1 -1 -1 -1 -1 -1 -1 -1 -1 -2 -1 -1 -1
8 8 8 8 7 7 7 7 6 6 6 5 5 4 4 4 3 3 2 2 2 1 1 1 1 0 0 -0 -1 -1 -1 -1 -1 -1 -1 -1 -1 -1 -1 -2 -1 -1 -1
8 8 7 7 7 7 6 6 6 5 5 5 4 4 4 3 3 3 2 2 1 1 1 1 0 0 -0 -0 -1 -1 -1 -1 -1 -1 -1 -1 -1 -1 -2 -2 -1 -1 -1
8 7 7 7 6 6 6 6 5 5 5 4 4 4 3 3 3 2 2 1 1 1 1 1 0 0 -0 -0 -1 -1 -1 -1 -1 -1 -1 -1 -1 -2 -2 -1 -1 -1 -1

GEFSGL_850_meantemp_108.txt.gz
Temperature
17 17 17 17 16 17 17 17 17 17 17 16 16 16 16 16 16 15 15 15 15 15 15 16 16 16 16 16 16 16 16 16 16 16 16 16 16 16 16 16 16 16 15
17 17 17 16 16 16 16 16 16 16 16 16 16 16 16 16 15 15 15 15 15 15 15 15 15 15 15 16 16 16 16 16 16 16 16 16 16 16 16 16 15 15 15
17 16 16 16 16 16 16 16 16 16 16 16 16 16 15 15 15 15 15 15 15 15 15 15 15 15 15 15 15 15 15 15 15 15 15 15 15 15 15 15 15 15 15
16 16 16 16 16 16 16 16 16 16 16 16 16 15 15 15 15 15 15 15 15 15 15 15 15 15 15 15 15 15 15 15 15 15 15 14 14 14 14 14 14 14 14
16 16 16 16 16 16 16 16 16 16 15 15 15 15 15 15 15 15 15 15 15 15 15 15 14 14 14 14 14 14 14 14 14 14 14 14 13 13 13 13 13 13 13
17 17 16 16 16 16 16 16 15 15 15 15 15 15 15 15 15 15 15 15 14 14 14 14 14 14 14 14 13 13 13 13 13 13 13 12 12 12 12 12 12 12 12
17 16 16 16 16 16 15 15 15 15 15 15 15 15 14 14 14 14 14 14 14 14 13 13 13 13 13 12 12 12 12 12 12 12 11 11 11 11 10 10 10 10 10
16 16 16 16 16 15 15 15 15 15 15 14 14 14 14 14 14 14 14 13 13 13 12 12 12 12 12 11 11 11 11 11 11 10 10 10 9 9 9 9 9 9 9
16 16 16 16 16 15 15 15 14 14 14 14 13 13 13 13 13 13 13 12 12 12 11 11 11 11 11 10 10 10 10 10 9 9 9 8 8 8 8 8 8 8 8
16 16 16 15 15 15 15 14 14 13 13 13 12 12 12 12 12 11 11 11 11 11 10 10 10 10 10 9 9 9 9 9 8 8 8 7 7 7 7 7 7 6 6
16 15 15 15 14 14 14 13 13 13 12 12 11 11 11 11 10 10 10 10 10 10 10 9 9 9 8 8 8 8 7 7 7 7 7 6 6 6 6 6 5 5 5
15 15 14 14 13 13 13 12 12 12 11 11 11 10 10 10 10 9 9 9 9 9 9 8 8 7 7 7 7 6 6 6 6 6 6 5 5 5 5 5 4 4 4
14 13 13 13 12 12 12 12 11 11 11 10 10 10 9 9 9 9 9 8 8 8 7 7 7 6 6 6 6 5 5 5 5 5 5 4 4 4 4 4 4 4 4
13 12 12 12 11 11 11 11 10 10 10 9 9 9 8 8 8 8 8 8 7 7 7 6 6 6 6 5 5 5 5 4 4 4 3 3 3 3 3 3 3 3 3
12 11 11 11 11 10 10 10 10 9 9 9 9 8 8 8 7 7 7 7 6 6 6 6 5 5 5 5 4 4 4 3 3 3 2 2 2 2 2 2 1 1 1
11 10 10 10 10 10 9 9 8 8 8 8 8 7 7 7 7 6 6 6 6 5 5 5 5 4 4 3 3 3 3 2 2 2 1 1 1 1 1 1 1 1 0
10 10 10 9 9 9 9 9 8 7 7 7 7 7 7 6 6 6 5 5 5 5 5 4 4 3 3 3 2 2 2 1 1 1 1 1 0 0 0 0 0 -0 -0
10 9 9 9 9 8 8 8 8 7 7 6 6 6 6 5 5 5 5 5 4 4 4 3 3 3 2 2 2 1 1 1 1 0 0 0 -0 -0 -0 -0 -0 -1 -1
9 9 9 9 8 8 8 7 7 7 7 6 6 6 5 5 5 4 4 4 4 3 3 3 2 2 2 1 1 1 1 0 0 0 -0 -0 -0 -0 -0 -1 -1 -1 -1
9 9 8 8 8 8 7 7 7 7 6 6 6 5 5 5 4 4 3 3 3 3 2 2 2 1 1 1 1 1 0 0 -0 -0 -0 -0 -1 -1 -1 -1 -1 -1 -1
8 8 8 8 8 8 7 7 7 6 6 6 5 5 4 4 4 3 3 3 2 2 2 2 1 1 1 1 0 0 -0 -0 -0 -0 -1 -1 -1 -1 -1 -1 -1 -1 -1
8 8 8 8 8 7 7 7 6 6 5 5 4 4 4 4 3 3 3 2 2 2 2 1 1 1 1 0 0 -0 -0 -0 -1 -1 -1 -1 -1 -1 -1 -1 -1 -1 -1
8 8 8 8 7 7 7 6 6 5 5 5 4 4 4 3 3 3 2 2 2 2 1 1 1 1 0 0 -0 -0 -0 -1 -1 -1 -1 -1 -1 -1 -2 -2 -2 -2 -2
8 8 7 7 7 7 6 6 5 5 5 4 4 4 4 3 3 3 2 2 2 1 1 1 1 0 0 0 -0 -0 -1 -1 -1 -1 -1 -1 -2 -2 -2 -2 -2 -2 -2
8 7 7 7 6 6 6 5 5 5 5 4 4 4 3 3 3 3 2 2 2 1 1 1 0 0 0 -0 -0 -1 -1 -1 -1 -1 -1 -2 -2 -2 -2 -2 -2 -2 -2
7 7 7 6 6 6 6 5 5 5 4 4 4 4 3 3 3 2 2 2 1 1 1 1 0 0 -0 -0 -1 -1 -1 -1 -1 -1 -2 -2 -2 -2 -2 -2 -2 -2 -2

GEFSGL_850_meantemp_114.txt.gz
Temperature
16 16 16 16 16 16 16 16 16 16 16 16 16 16 16 15 15 15 15 15 15 15 15 15 15 15 15 15 15 15 15 15 15 15 15 15 16 16 16 16 16 16 15
16 16 16 16 16 16 16 16 16 16 16 16 16 16 15 15 15 15 15 15 15 15 15 15 15 15 15 15 15 15 15 15 15 15 15 15 15 15 15 15 15 15 15
16 16 16 16 16 16 16 16 16 16 16 15 15 15 15 15 15 15 15 15 15 14 14 14 14 14 14 14 14 14 14 14 14 14 14 14 14 14 14 14 14 14 14
16 16 16 16 16 16 16 16 15 15 15 15 15 15 15 15 15 15 15 14 14 14 14 14 14 14 14 14 14 14 14 14 14 14 14 14 14 14 13 13 13 13 13
16 16 16 16 15 15 15 15 15 15 15 15 15 15 15 15 15 14 14 14 14 14 14 14 14 14 14 14 13 13 13 13 13 13 13 13 13 13 13 12 12 12 12
16 16 16 15 15 15 15 15 15 15 15 15 14 14 14 14 14 14 14 14 14 14 14 13 13 13 13 13 13 13 12 12 12 12 12 12 12 11 11 11 11 11 10
16 16 15 15 15 15 15 15 15 15 14 14 14 14 14 14 14 14 14 14 13 13 13 13 13 12 12 12 12 12 11 11 11 11 11 10 10 10 10 10 9 9 9
16 15 15 15 15 15 15 15 14 14 14 14 14 14 14 13 13 13 13 13 13 12 12 12 12 11 11 11 11 11 10 10 10 10 9 9 9 8 8 8 8 8 8
16 15 15 15 15 15 15 14 14 14 14 13 13 13 13 13 12 12 12 12 12 11 11 10 10 10 10 9 9 9 9 9 8 8 8 7 7 7 7 7 7 7 7
15 15 15 15 15 15 14 14 13 13 13 12 12 12 12 12 11 11 11 11 11 10 10 9 9 9 9 8 8 8 8 7 7 7 6 6 6 6 6 6 6 6 5
15 15 14 14 14 14 14 13 13 12 12 12 11 11 11 11 10 10 10 10 10 10 9 8 8 8 8 7 7 7 6 6 6 6 5 5 5 5 5 5 4 4 4
14 14 14 14 13 13 13 12 12 12 11 11 11 10 10 9 9 9 9 9 9 9 8 7 7 7 7 6 6 6 5 5 5 5 5 4 4 4 4 3 3 3 3
14 13 13 13 12 12 12 11 11 11 11 10 10 9 9 8 8 8 8 8 7 7 7 6 6 6 6 6 5 5 5 4 4 4 3 3 3 3 3 3 3 3 3
13 12 12 12 11 11 10 10 10 10 10 9 9 8 8 8 7 7 7 7 6 6 6 5 5 5 5 4 4 4 4 3 3 3 2 2 2 2 2 2 2 2 2
12 12 11 11 10 10 10 9 9 9 8 8 8 8 7 7 6 6 6 6 5 5 5 5 4 4 4 3 3 3 3 2 2 2 2 2 2 1 1 1 1 1 1
11 11 10 10 10 9 9 8 8 8 7 7 7 7 6 6 6 5 5 5 5 4 4 4 4 3 3 3 3 2 2 2 1 1 1 1 1 1 1 0 0 0 0
11 10 10 9 9 9 8 8 7 6 6 6 6 6 6 5 5 5 5 4 4 4 4 4 3 3 3 2 2 2 1 1 1 1 0 0 0 0 -0 -0 -0 -0 -0
10 9 9 9 8 8 8 7 7 7 6 5 5 5 5 5 4 4 4 4 4 3 3 3 3 2 2 2 1 1 1 0 0 0 0 -0 -0 -0 -1 -1 -1 -1 -1
9 9 8 8 8 7 7 7 7 6 6 5 5 4 4 4 4 4 4 4 3 3 3 2 2 2 1 1 1 1 0 0 -0 -0 -0 -1 -1 -1 -1 -1 -1 -1 -1
8 8 8 8 7 7 7 6 6 6 5 5 4 4 4 4 3 3 3 3 3 2 2 2 2 1 1 1 0 0 0 -0 -0 -0 -1 -1 -1 -1 -1 -1 -2 -2 -2
8 8 7 7 7 7 6 6 6 5 5 5 4 4 4 4 3 3 3 3 2 2 2 2 1 1 1 1 0 0 -0 -0 -1 -1 -1 -1 -1 -1 -2 -2 -2 -2 -2
8 7 7 7 7 6 6 6 6 5 5 4 4 4 4 3 3 3 3 2 2 2 2 1 1 1 1 0 0 -0 -0 -1 -1 -1 -1 -1 -1 -2 -2 -2 -2 -2 -2
8 7 7 7 6 6 6 6 5 5 5 4 4 4 3 3 3 3 3 2 2 2 2 1 1 1 1 0 0 -0 -0 -1 -1 -1 -1 -1 -2 -2 -2 -2 -2 -2 -2
7 7 7 7 6 6 6 5 5 5 4 4 4 4 3 3 3 3 3 2 2 2 2 1 1 1 1 0 0 -0 -1 -1 -1 -1 -1 -2 -2 -2 -2 -2 -2 -2 -2
7 7 7 6 6 6 5 5 5 5 4 4 4 4 3 3 3 3 2 2 2 2 1 1 1 1 1 0 0 -0 -0 -1 -1 -1 -1 -2 -2 -2 -2 -2 -2 -2 -2
7 7 6 6 6 6 5 5 5 4 4 4 4 3 3 3 3 3 2 2 2 2 1 1 1 1 1 0 0 -0 -0 -1 -1 -1 -1 -2 -2 -2 -2 -2 -2 -2 -2